GFSSW_850_spd_063.txt.gz
Wind_Speed
17 19 20 21 21 21 21 21 25 25 23 21 19 20 21 24 23 23 24 17 13 13 16 18 16 16 17 11 8 6 2 4 5 6 5 5 5 5 5 5 5 7 10 11 14
17 19 20 22 23 24 25 25 23 25 27 25 23 20 19 25 24 24 14 16 16 15 22 21 20 18 9 9 8 5 4 8 6 6 6 11 8 7 4 5 6 10 15 13 12
17 18 19 21 23 26 27 26 27 26 26 28 25 23 20 21 21 3 9 9 16 16 19 16 14 16 7 7 8 6 7 6 6 15 11 7 5 5 5 8 10 7 8 9 8
17 19 19 22 22 23 26 29 27 27 27 27 28 25 20 18 5 1 5 8 11 21 17 15 18 10 6 7 9 4 11 8 6 6 3 4 3 4 12 4 3 6 7 7 6
18 20 21 23 26 26 26 28 29 25 25 26 28 26 22 12 17 14 5 7 11 17 16 15 18 9 7 6 8 6 8 7 16 12 11 6 9 6 11 11 9 7 8 8 5
19 20 21 22 23 24 27 27 28 27 23 25 24 27 17 7 8 8 11 21 17 15 17 16 11 14 7 6 7 6 10 11 10 13 6 6 3 2 3 13 12 10 9 7 5
18 20 21 22 23 24 27 29 28 26 26 20 24 26 20 28 16 27 19 16 15 20 21 20 13 9 9 3 8 2 6 7 9 5 4 7 6 9 7 12 13 12 11 7 6
18 19 20 22 23 25 26 29 30 27 25 20 20 22 15 23 25 32 23 22 14 18 20 14 14 11 5 3 2 3 1 5 1 5 2 6 13 3 3 15 14 14 13 8 7
17 18 21 23 25 26 27 30 26 25 21 13 15 11 15 16 18 14 15 22 18 18 17 6 13 7 6 4 2 0 6 6 6 4 3 5 8 0 4 13 14 16 14 12 9
17 19 21 23 24 27 28 29 18 10 10 1 7 5 13 13 10 6 5 8 10 22 13 9 6 4 4 10 11 8 5 4 5 1 2 4 15 16 9 14 15 15 15 15 14
16 18 20 22 24 25 27 27 7 4 11 10 11 7 13 9 18 9 6 3 8 15 10 7 8 15 19 14 5 7 5 4 5 5 3 6 13 18 8 12 14 15 16 17 17
15 17 18 21 21 22 19 5 6 9 15 27 30 32 35 22 14 15 9 5 8 10 9 5 19 14 8 8 11 6 6 9 10 2 8 10 14 15 5 6 12 17 17 17 17
14 16 18 19 19 16 11 2 4 19 7 21 21 19 33 37 32 38 18 6 6 9 18 19 5 15 14 8 11 11 13 7 10 6 3 5 5 6 2 4 7 13 15 16 21
14 16 16 16 14 6 7 7 14 17 5 7 5 6 11 14 11 49 26 20 6 14 8 14 8 13 12 16 14 15 12 8 7 4 4 3 7 6 7 7 7 13 17 18 21
15 17 15 12 14 14 13 13 11 6 6 1 3 1 9 15 6 5 32 24 19 7 7 9 10 12 13 11 14 11 9 11 7 6 3 2 4 4 2 7 10 10 19 23 25
15 16 16 14 13 14 13 9 4 2 7 6 1 1 6 11 6 3 14 13 17 4 3 9 4 10 19 7 18 8 5 4 3 2 5 7 5 5 3 6 4 6 9 18 25
15 15 16 14 11 9 11 8 2 5 6 5 6 5 6 6 6 6 10 16 9 12 12 6 8 2 5 6 7 5 8 3 4 5 5 3 6 13 9 13 10 12 15 12 22
15 17 18 17 14 12 5 1 7 4 6 8 8 12 4 3 6 8 9 12 11 3 9 10 6 11 5 6 9 18 13 6 8 6 4 2 6 5 9 8 10 15 16 12 19
16 20 21 17 14 12 8 4 3 5 4 9 15 3 4 5 4 3 7 3 9 8 7 9 9 3 5 5 8 6 10 6 5 2 1 4 5 8 8 9 4 10 6 8 17
16 19 26 18 14 16 7 9 6 3 5 5 3 6 6 8 10 5 5 8 4 9 3 6 3 5 11 3 3 5 9 5 0 7 8 3 4 6 7 10 8 9 6 6 10
13 7 10 9 15 12 5 6 5 18 9 3 3 5 5 5 5 6 5 5 11 8 6 3 0 1 6 7 12 7 8 2 4 3 8 6 5 7 11 8 7 7 12 5 9
11 4 8 12 10 4 3 7 7 5 3 4 2 4 3 5 5 6 7 6 13 13 3 3 2 3 4 2 4 4 8 10 5 5 1 1 8 3 9 7 7 12 12 9 8
8 12 14 15 6 10 3 5 5 5 4 0 1 2 2 3 4 4 5 8 18 10 6 5 3 2 4 3 3 5 5 4 2 1 12 7 4 2 5 10 10 12 11 9 8
8 3 11 19 16 12 8 7 6 7 5 5 3 2 3 3 2 4 4 6 14 7 15 3 2 1 4 3 3 2 3 9 11 4 5 6 7 5 6 9 14 14 17 12 13
11 6 7 4 12 11 14 12 13 8 8 4 4 11 6 5 4 5 6 5 9 12 6 5 2 4 5 4 3 3 8 9 9 11 10 9 9 10 7 9 16 17 26 22 18
8 7 9 8 6 16 12 13 14 11 8 4 7 2 7 7 6 4 5 4 3 7 7 8 1 1 2 4 2 6 8 6 6 4 7 10 10 9 16 13 14 23 25 25 32
23 23 11 9 6 7 5 12 15 11 6 14 5 6 9 11 10 14 15 14 12 7 5 4 1 1 2 4 5 1 2 1 1 1 3 4 10 13 12 10 12 22 23 26 25

GFSSW_850_spd_066.txt.gz
Wind_Speed
15 16 16 17 17 18 18 19 21 22 23 24 23 23 23 25 27 24 22 18 13 13 16 20 20 15 15 14 10 9 9 11 12 14 10 3 6 6 8 13 9 8 9 6 10
15 16 17 18 19 20 21 21 22 23 23 24 25 24 23 25 28 28 18 17 18 16 20 23 20 18 18 16 11 14 12 15 6 10 7 8 9 10 6 11 13 13 12 10 9
15 16 17 18 19 21 20 23 23 23 23 23 24 24 23 24 22 4 10 14 15 20 17 19 16 19 20 14 18 15 18 12 8 13 8 12 12 4 10 13 13 13 8 7 4
15 15 16 17 19 21 23 25 24 25 24 24 24 23 22 17 8 4 7 2 10 17 16 18 19 21 18 15 19 14 20 17 12 9 11 11 12 12 14 18 9 7 5 6 5
15 16 17 18 20 21 22 23 25 27 25 23 23 22 22 8 18 22 17 9 5 18 17 20 21 22 17 14 13 19 18 15 18 16 15 14 17 17 18 14 11 7 6 6 4
14 16 18 19 20 22 24 25 25 24 25 25 23 21 13 16 14 12 10 9 8 15 14 18 14 19 11 15 16 7 21 20 17 18 17 14 19 5 16 8 12 10 8 7 5
17 16 16 19 21 23 25 27 27 26 24 24 24 18 16 26 21 26 29 25 16 16 19 18 17 12 10 11 20 15 15 15 17 18 18 11 18 17 16 9 11 12 10 8 5
17 16 17 18 21 23 26 26 27 26 25 20 18 15 13 18 21 27 29 27 22 18 17 15 16 16 11 6 5 14 14 15 12 11 9 11 17 3 5 10 12 12 12 10 8
15 17 18 18 21 24 26 27 25 21 17 15 9 9 14 14 17 16 17 19 13 18 14 10 12 19 15 13 12 13 15 16 12 8 4 12 11 7 5 10 11 12 13 12 10
17 17 16 18 21 24 25 24 14 9 8 5 3 6 17 14 9 7 8 14 8 15 14 16 14 12 15 15 18 17 15 15 14 7 10 13 15 14 6 10 12 13 14 15 13
18 17 16 18 21 21 24 15 8 3 8 10 13 16 21 9 7 7 14 11 7 18 18 24 15 22 25 23 19 13 14 15 7 4 5 14 15 13 7 9 12 14 15 16 15
17 16 16 17 19 17 13 7 5 8 14 27 33 31 33 19 9 9 13 9 13 15 20 13 22 21 17 19 19 17 16 14 8 5 11 15 15 14 11 8 10 13 15 17 16
16 15 14 16 16 6 9 5 5 15 9 18 12 15 16 18 21 12 19 10 12 15 19 24 7 20 16 17 19 21 19 16 13 3 11 11 16 18 12 7 8 10 12 17 19
14 13 14 15 5 5 6 7 11 12 5 4 3 3 3 9 9 33 15 15 12 14 17 17 25 8 20 24 19 20 20 17 14 8 9 3 13 14 9 16 10 10 14 17 21
14 12 11 10 9 5 6 10 9 3 6 4 2 3 4 9 5 8 30 21 23 18 7 13 12 22 18 21 19 20 10 12 16 11 11 15 9 14 5 12 11 10 13 16 21
14 13 12 9 7 5 5 8 3 3 6 3 2 2 4 12 6 3 11 29 22 18 19 25 5 14 22 14 16 7 7 8 9 10 12 13 11 9 3 4 2 4 3 11 20
15 13 11 8 5 2 4 3 4 6 4 1 3 8 15 15 8 9 11 21 15 19 20 25 21 12 15 21 15 15 12 6 8 8 11 7 9 15 5 8 10 7 7 7 19
16 16 13 11 8 8 3 3 9 2 9 9 8 16 6 10 6 13 12 15 23 18 8 15 14 20 13 16 14 24 21 7 10 10 8 9 7 4 4 2 5 10 10 7 17
16 15 14 12 11 10 7 8 4 9 3 7 13 7 2 8 7 6 10 7 15 23 17 18 18 13 13 12 15 16 17 14 6 2 4 9 8 9 11 10 5 8 4 5 15
13 11 15 13 13 14 5 9 10 9 4 5 6 3 5 8 7 5 4 6 5 19 16 5 11 16 21 12 16 11 12 11 10 13 10 7 10 6 8 5 3 3 10 1 9
10 6 6 10 16 11 6 10 12 19 9 4 3 5 5 6 8 3 1 6 16 11 15 9 8 6 13 16 19 13 10 9 8 13 11 7 5 6 11 5 0 7 10 3 5
8 4 8 14 10 7 9 13 7 15 17 16 7 7 8 7 6 0 1 4 17 22 9 14 5 6 16 5 16 18 20 18 9 11 8 10 10 6 5 5 4 8 9 5 3
7 12 10 14 7 11 7 14 13 12 13 9 10 6 4 5 4 3 4 9 14 15 12 4 7 10 9 7 4 11 12 12 17 13 12 9 3 1 2 9 7 8 14 8 3
6 3 14 14 16 11 16 16 15 16 17 15 7 6 8 10 7 7 6 2 11 9 23 11 5 11 9 5 1 7 10 13 12 11 13 15 16 13 9 12 14 13 12 10 9
10 6 9 5 11 15 12 7 15 15 16 14 11 16 15 11 12 13 14 13 5 4 4 8 0 1 2 0 1 1 3 9 13 13 13 10 11 11 11 9 11 18 16 14 16
9 6 6 14 8 15 16 14 20 20 13 12 13 9 12 18 17 16 7 7 3 6 3 5 3 4 1 1 5 7 7 6 10 9 7 8 10 8 12 16 15 19 19 21 18
18 23 6 14 13 12 10 15 14 14 14 17 11 7 12 12 8 12 13 13 13 7 5 3 2 3 2 2 4 7 13 5 5 4 4 5 4 7 8 10 15 18 12 20 20

GFSSW_850_spd_069.txt.gz
Wind_Speed
14 15 16 17 18 18 18 18 18 20 21 21 21 22 23 25 27 24 23 21 16 15 15 11 18 20 19 21 24 15 15 15 21 16 12 6 6 12 7 12 14 10 11 7 3
15 16 17 18 19 19 20 21 22 21 20 21 22 22 22 25 27 27 22 26 27 24 17 22 23 22 24 23 25 18 14 22 19 10 11 11 12 10 7 15 16 14 15 11 8
16 15 17 18 19 20 21 22 23 22 22 23 22 22 22 21 22 0 7 12 17 18 21 22 21 23 25 23 26 24 21 21 16 10 17 11 13 14 10 14 16 14 15 7 10
15 15 15 16 18 19 20 22 23 22 23 23 22 22 21 16 7 7 17 17 14 11 19 22 26 27 22 23 26 23 26 24 25 16 14 15 18 16 17 17 15 11 9 8 10
16 16 16 17 19 20 22 23 23 22 22 23 23 22 22 10 26 19 22 14 13 8 18 22 28 27 24 22 25 22 24 25 22 24 21 18 20 18 23 20 18 7 8 9 10
17 17 18 18 20 22 23 25 25 24 23 24 23 20 12 18 14 17 12 6 5 7 15 21 21 24 24 25 21 23 22 25 28 23 22 20 20 21 25 18 13 9 11 10 10
13 16 17 19 20 23 25 26 26 25 24 23 21 18 13 28 15 17 19 19 12 10 18 18 22 16 25 18 23 23 21 19 19 26 22 21 22 20 28 19 13 12 13 11 11
14 16 18 20 21 24 26 26 25 24 22 20 17 9 12 16 17 22 22 21 15 14 18 20 19 23 23 16 17 16 21 19 21 23 22 18 18 19 2 10 12 12 13 12 13
17 17 18 20 21 23 26 25 23 20 17 16 5 8 13 7 9 12 18 18 15 10 17 18 20 23 23 17 16 20 16 22 21 11 10 12 16 10 6 8 13 13 14 13 13
16 18 18 20 20 22 24 19 14 11 10 6 9 8 10 7 7 6 7 5 12 6 15 20 17 17 19 17 18 19 20 19 19 12 13 16 18 15 14 12 12 15 14 14 14
16 17 18 19 19 19 21 21 5 6 9 15 15 15 27 15 12 11 10 10 6 3 16 25 17 22 25 24 22 22 18 16 11 12 10 15 17 15 14 15 12 14 14 14 14
13 18 17 18 16 13 12 9 6 8 17 21 26 27 29 25 27 15 7 12 7 16 16 22 25 23 23 23 25 25 23 18 17 6 8 15 17 18 16 15 13 16 14 13 15
14 17 16 15 13 5 7 4 9 13 10 13 5 8 7 9 27 25 13 9 10 13 19 24 22 23 22 22 26 23 23 20 19 7 10 15 18 18 16 20 10 12 14 13 16
15 15 14 12 8 4 8 7 11 10 6 7 2 1 2 3 5 20 22 15 7 10 13 18 29 11 22 27 22 22 20 20 18 14 13 13 14 14 17 20 17 19 17 15 16
15 14 13 10 10 8 7 10 10 7 6 4 6 1 1 6 10 4 21 19 14 8 5 9 17 20 23 24 23 21 17 16 18 16 16 18 10 14 14 14 10 13 19 17 17
18 15 14 7 9 9 8 8 6 6 7 3 3 1 7 10 8 2 20 18 8 9 19 23 33 16 19 23 17 17 18 17 11 14 15 18 15 11 10 7 2 7 8 17 18
20 17 13 10 8 4 5 8 6 7 3 3 1 6 13 17 5 12 11 19 10 4 14 19 23 23 27 18 21 25 14 9 11 13 14 16 12 14 6 8 5 7 11 13 18
16 18 14 12 12 10 8 8 10 8 10 3 8 12 17 10 6 13 11 14 18 12 7 9 13 20 17 19 18 20 21 12 11 11 13 17 7 8 5 3 6 5 8 7 16
17 16 15 15 13 13 8 11 7 10 11 4 11 15 14 3 4 7 15 13 11 19 9 8 12 16 20 13 17 21 21 20 14 6 9 9 10 3 7 8 8 7 4 7 15
12 14 18 14 16 16 7 15 14 9 5 5 11 7 11 5 6 5 6 3 4 5 16 16 18 13 18 16 18 20 15 20 15 9 8 9 15 6 6 9 8 6 5 1 9
12 7 8 16 18 14 11 17 15 18 11 9 12 12 11 11 7 4 1 4 10 11 17 22 17 8 22 15 21 17 18 14 14 13 8 7 5 1 11 7 4 6 5 3 5
14 5 9 16 14 12 10 18 21 11 15 17 16 15 15 15 11 7 1 4 6 14 12 15 6 13 15 25 23 21 19 17 10 16 15 10 5 1 4 5 3 5 1 6 2
12 16 9 17 9 13 16 17 21 15 17 17 18 20 16 16 8 10 4 4 4 13 10 9 9 13 6 9 18 24 23 20 14 10 9 8 7 13 6 3 7 4 5 4 4
7 4 17 17 19 16 17 16 18 22 20 18 16 16 16 14 16 8 5 7 7 4 20 15 11 13 13 7 12 17 18 19 18 12 15 14 11 11 5 5 7 15 11 9 3
12 7 8 8 15 17 17 8 20 18 16 19 18 19 14 13 17 18 16 14 6 6 5 10 6 10 15 8 5 8 10 14 16 15 13 13 15 14 6 5 6 7 12 14 13
10 9 14 19 16 16 19 19 16 15 15 15 17 18 17 18 17 18 12 8 8 3 0 6 3 10 13 10 5 8 10 11 13 10 10 13 11 7 7 6 6 12 14 12 15
23 20 15 9 15 11 11 19 17 18 20 18 22 15 15 12 14 16 14 12 11 8 3 4 3 6 2 1 4 8 12 8 10 14 13 11 5 2 2 7 7 10 12 17 16

GFSSW_850_spd_072.txt.gz
Wind_Speed
15 16 17 17 17 18 19 19 21 21 22 22 21 21 23 25 27 24 21 20 20 24 18 15 11 19 20 25 26 25 14 16 22 23 21 11 6 5 10 11 13 14 13 11 7
16 16 16 18 18 18 19 20 21 20 20 21 22 24 21 23 27 29 21 25 22 24 26 15 19 20 26 27 28 20 16 23 21 23 20 14 12 11 15 12 15 15 9 7 5
16 15 16 16 18 18 19 20 20 20 21 22 23 24 21 22 24 3 1 6 9 14 18 19 21 22 27 29 30 28 23 21 24 30 20 11 22 9 10 13 14 12 2 2 8
16 19 19 18 18 18 19 20 20 19 20 22 22 23 21 15 7 6 15 22 19 16 9 15 23 29 23 24 31 24 31 29 28 29 30 13 22 13 19 14 14 18 5 5 9
17 17 19 19 19 20 21 21 21 21 21 22 23 24 22 7 26 17 26 18 14 8 9 15 22 27 24 24 28 27 25 30 30 30 25 27 17 17 22 19 20 18 5 5 11
18 15 16 21 22 22 22 23 23 22 21 21 22 21 14 17 9 11 12 12 10 11 12 15 22 24 30 28 24 30 29 29 30 27 26 22 18 22 24 24 27 20 10 9 13
20 19 19 20 23 24 24 24 24 23 22 22 21 17 15 34 15 19 17 17 14 14 14 14 18 24 23 24 31 32 26 22 22 23 22 29 22 21 26 27 25 22 12 12 14
23 20 21 22 24 25 24 25 23 21 21 19 16 9 13 16 15 19 17 20 21 17 17 17 18 20 21 28 26 24 22 21 22 22 23 21 20 20 27 29 24 12 14 14 14
22 21 22 23 24 25 25 25 18 16 16 15 9 6 12 7 8 8 9 12 14 17 14 12 16 15 18 17 16 17 19 23 24 23 21 24 23 19 26 6 8 15 18 16 13
22 22 20 23 23 22 24 23 12 15 9 7 10 9 18 9 5 10 8 5 9 13 12 12 12 12 17 15 17 19 21 21 22 20 24 16 15 13 21 17 17 17 18 19 16
21 20 19 23 22 18 18 23 9 2 9 17 12 16 31 21 23 16 13 9 9 9 14 9 12 18 23 21 22 20 22 23 21 20 18 18 16 16 17 19 16 17 16 17 20
22 17 20 21 18 12 8 10 7 10 16 25 29 29 26 25 26 25 11 7 13 13 14 9 21 19 21 21 22 22 24 25 23 12 8 11 13 15 16 15 17 21 19 19 21
20 18 19 19 13 5 8 11 10 13 8 18 10 12 9 8 15 19 20 14 14 13 13 19 16 17 22 28 24 22 23 22 24 20 18 9 16 17 20 19 22 19 15 18 24
18 18 18 17 11 7 10 4 10 12 5 7 10 6 7 3 6 4 18 16 2 8 10 8 15 18 18 29 23 22 21 25 24 18 14 15 13 16 19 18 16 19 18 15 15
18 18 16 13 15 12 12 11 10 8 5 11 11 7 5 7 7 6 11 17 11 7 5 5 10 21 24 25 21 23 15 23 21 18 17 19 11 13 13 14 17 18 22 23 19
18 18 18 13 14 10 13 9 7 4 8 9 10 9 11 17 13 9 12 9 3 10 14 15 15 9 13 22 20 17 18 23 21 15 16 18 16 14 14 13 15 13 13 24 21
17 19 21 14 18 11 3 9 5 6 3 9 7 3 6 10 12 12 11 14 8 4 10 14 25 18 20 20 16 22 10 8 8 13 12 15 13 14 16 6 7 4 6 18 21
18 18 19 18 15 13 8 5 10 8 15 0 5 7 13 15 13 5 11 12 16 10 8 5 4 18 11 19 11 17 20 9 7 8 12 18 10 18 18 13 12 5 8 16 17
16 18 21 17 15 15 12 10 6 15 16 14 9 7 16 15 5 9 16 13 9 15 7 4 5 6 17 10 8 12 19 25 13 9 6 9 17 3 6 6 8 10 13 14 15
15 18 25 18 17 19 10 17 18 14 10 6 6 7 12 12 3 1 1 2 3 4 12 4 8 12 17 15 19 22 19 15 10 7 6 5 16 8 15 12 11 5 4 2 9
15 10 15 18 21 15 11 18 18 27 19 8 9 14 16 11 11 7 2 6 4 3 5 7 7 3 7 7 18 11 15 14 12 13 6 4 6 8 11 7 11 9 9 5 3
20 6 12 25 13 5 10 18 25 18 13 13 12 13 15 16 12 10 9 6 7 5 3 5 5 9 19 16 20 17 20 18 9 19 12 6 1 8 5 6 9 7 8 10 3
9 18 19 16 8 13 14 22 23 21 19 13 16 15 16 16 15 9 14 10 7 4 5 6 5 6 9 10 16 16 19 19 12 10 8 4 5 4 7 6 4 3 11 4 8
4 4 19 16 18 14 18 18 19 26 20 19 16 17 13 16 17 7 5 7 8 4 8 5 6 9 10 9 8 14 22 22 17 4 7 7 7 5 9 2 0 1 11 17 10
6 6 6 8 12 16 18 7 16 18 19 19 15 19 16 15 14 16 18 11 11 9 3 3 5 8 13 16 16 14 16 21 22 19 15 11 16 12 15 14 6 14 11 9 14
5 6 14 9 14 16 17 18 19 14 17 16 16 18 19 17 14 14 15 10 6 8 3 3 4 11 10 15 15 16 12 14 11 15 15 11 6 8 6 10 16 21 22 20 20
19 16 13 9 10 11 10 19 19 18 15 22 10 16 12 12 7 8 16 4 13 7 5 3 1 4 4 13 7 9 12 10 10 10 8 9 4 7 4 6 16 19 18 18 18

GFSSW_850_spd_075.txt.gz
Wind_Speed
15 16 15 16 17 17 18 18 19 20 20 21 20 21 21 24 26 24 26 19 14 16 17 17 14 11 14 20 23 22 10 12 16 15 20 23 3 9 11 6 5 5 15 16 19
15 15 16 17 17 18 18 18 18 18 20 21 22 23 22 24 28 21 7 10 14 16 18 21 19 12 14 12 15 13 10 15 12 17 18 16 9 12 6 11 10 13 5 18 14
17 17 17 17 18 18 19 20 19 19 20 22 23 23 21 21 23 3 7 7 11 13 14 14 18 18 22 23 24 18 19 15 20 31 29 15 19 22 3 4 5 8 16 16 14
18 17 18 18 18 19 20 19 19 20 20 22 23 24 20 16 5 4 8 19 19 16 12 6 13 15 5 12 30 17 26 28 28 36 35 17 23 11 11 8 7 5 10 17 16
19 18 18 20 19 20 20 20 20 20 20 21 22 23 23 9 24 10 11 14 12 11 7 7 13 17 9 9 18 17 18 29 33 34 38 33 19 16 17 18 18 13 10 14 12
24 23 21 22 23 23 21 21 21 21 20 21 23 22 15 11 5 3 10 8 10 11 12 12 12 20 20 18 16 22 24 26 30 30 28 20 20 13 24 20 19 23 17 19 14
26 26 25 23 24 25 24 23 22 20 19 20 20 17 16 35 18 17 14 14 11 13 17 14 12 12 16 11 24 26 17 17 18 23 14 28 15 15 30 24 28 30 28 23 15
28 23 23 24 25 25 24 25 24 20 15 14 15 10 14 14 8 8 7 11 15 17 18 20 15 17 9 14 16 10 13 15 13 11 19 12 18 12 32 25 30 33 32 26 21
24 24 25 26 25 25 23 25 22 14 13 13 14 8 13 6 10 3 3 7 10 9 14 13 15 14 10 4 5 6 9 12 17 14 16 18 20 17 31 29 19 9 21 25 26
27 24 26 23 25 21 19 20 11 9 5 6 4 7 13 12 3 7 5 9 6 8 9 6 7 4 2 2 8 4 7 9 14 22 17 21 23 18 24 19 19 15 16 25 29
24 24 25 23 23 16 16 17 13 3 11 11 11 15 22 15 22 18 10 9 4 7 4 12 5 8 8 10 14 13 15 19 18 17 16 21 21 19 11 13 14 24 24 21 33
22 26 22 22 19 8 10 11 13 15 15 26 33 41 43 36 21 20 16 8 4 6 6 4 6 7 11 15 14 13 18 23 23 20 16 14 25 10 9 8 19 26 31 28 34
21 23 21 21 14 2 9 16 15 16 6 25 17 17 19 16 19 19 13 16 6 5 7 10 7 5 12 18 15 14 17 19 19 20 24 18 17 5 6 7 20 22 37 32 41
19 23 19 21 11 6 5 11 11 15 4 8 7 7 14 7 7 17 14 17 3 0 3 3 4 10 15 17 14 11 11 23 17 12 9 19 13 7 10 16 15 18 29 33 39
23 20 17 15 17 11 14 15 15 8 5 8 8 13 12 11 4 7 12 20 8 7 5 6 4 5 14 17 16 9 15 22 7 9 13 22 12 8 9 10 13 16 26 33 44
24 20 18 19 16 9 14 11 6 1 8 8 11 11 10 14 6 11 10 8 3 5 9 11 14 5 2 11 8 8 15 6 7 4 8 18 14 8 10 9 9 16 27 35 40
19 18 17 15 18 10 8 12 2 6 10 10 8 16 17 7 12 10 10 7 5 3 5 6 13 12 8 7 8 9 9 1 3 4 6 9 14 14 9 17 13 4 20 34 37
22 19 20 19 15 7 13 3 9 9 13 9 6 5 3 4 10 8 12 6 7 5 2 2 5 5 11 11 5 12 6 4 5 3 3 13 7 12 13 18 15 11 19 33 36
20 19 23 15 9 9 9 6 5 8 7 13 11 6 1 11 10 5 10 4 4 11 6 3 3 2 5 9 14 5 8 5 8 5 4 4 6 12 14 19 7 9 13 28 37
21 20 26 13 10 14 6 14 12 11 17 17 7 5 3 6 4 3 4 4 3 7 3 0 5 5 1 11 11 8 4 3 3 3 3 6 7 6 6 8 8 6 6 14 34
15 9 18 6 17 15 10 10 11 28 27 7 12 9 9 10 9 6 6 2 1 5 6 5 2 1 3 6 6 7 4 6 2 4 3 3 4 4 5 5 9 9 14 13 23
15 4 6 10 12 5 14 7 12 26 35 17 11 8 8 9 8 7 4 5 6 4 6 1 3 5 11 11 14 13 11 11 4 4 5 4 6 15 4 8 9 8 16 9 9
6 14 26 16 8 12 8 15 23 20 20 12 10 9 8 7 4 6 7 9 11 4 4 3 3 4 6 5 9 4 12 15 9 4 6 2 4 11 5 7 14 17 20 20 8
4 3 11 17 18 7 12 15 17 24 23 23 16 15 11 8 6 5 2 5 5 4 6 1 4 6 6 11 3 4 8 16 17 3 5 10 5 6 16 14 16 19 24 29 31
7 5 8 3 6 12 10 1 10 17 20 22 16 12 12 8 7 5 5 8 5 10 5 3 4 6 11 14 11 12 14 15 22 17 5 6 7 6 7 18 12 19 25 28 29
8 3 5 5 9 5 9 7 15 15 8 9 11 8 7 7 7 9 1 4 3 3 4 4 3 3 8 9 7 15 17 15 17 20 17 18 18 2 6 6 9 19 24 25 25
15 19 10 5 5 5 3 4 10 10 11 9 5 9 6 9 11 5 4 6 6 4 5 3 2 3 3 7 12 8 7 12 10 9 14 10 7 5 7 7 11 17 23 22 23

GFSSW_850_spd_078.txt.gz
Wind_Speed
16 15 16 16 16 15 17 18 17 18 19 21 22 22 22 25 27 24 28 21 13 10 10 8 12 7 5 12 17 8 1 4 6 10 11 20 8 28 17 6 11 13 11 11 22
16 17 17 18 17 17 17 17 17 18 19 20 22 23 21 25 27 26 7 8 3 4 8 10 14 11 7 9 8 7 5 9 9 6 12 22 11 25 15 20 9 6 8 10 25
16 17 18 19 19 20 19 18 18 18 19 22 22 24 20 24 24 1 5 10 11 7 9 11 13 12 11 15 10 7 13 8 11 22 27 23 18 34 13 8 16 9 11 16 28
19 18 20 20 21 21 20 21 20 18 19 20 22 25 21 20 5 4 2 8 10 8 8 7 6 6 5 8 23 7 11 13 21 28 28 21 33 24 19 21 21 12 15 24 27
21 24 24 23 22 22 21 20 20 20 20 20 22 24 23 11 21 14 15 8 5 7 6 5 7 7 5 5 11 10 16 24 27 30 33 33 27 26 33 40 32 14 19 27 27
23 25 26 24 24 24 23 22 20 20 19 20 20 20 17 9 5 4 10 10 6 8 10 7 7 9 11 8 9 7 16 22 25 26 30 20 23 22 33 38 30 17 16 22 29
23 26 27 26 26 26 24 24 22 20 19 17 16 14 17 34 15 17 18 17 14 12 13 11 10 7 9 5 7 8 12 16 17 19 13 20 16 20 28 35 29 27 23 23 30
22 25 27 28 28 26 24 24 23 20 19 15 14 11 15 13 6 5 8 15 12 14 18 18 13 15 10 7 7 5 5 8 8 11 15 11 22 16 26 28 31 33 33 29 30
23 26 27 27 27 25 23 22 19 18 16 13 13 11 15 7 7 1 3 3 2 5 9 9 14 9 6 1 4 4 13 12 9 6 8 8 22 10 24 27 26 33 34 31 34
25 23 25 29 25 21 19 17 10 7 2 5 6 7 15 6 6 2 1 5 11 5 5 7 6 2 2 3 11 5 7 7 9 2 7 17 21 18 26 24 26 31 22 23 36
22 24 25 27 22 17 15 12 14 4 14 12 9 12 14 9 14 14 5 12 9 4 3 4 2 7 7 8 6 8 12 14 11 11 6 17 19 18 21 19 22 27 29 33 44
21 22 25 28 19 9 10 12 17 19 19 26 32 39 44 32 17 24 19 5 7 5 3 2 6 10 8 6 8 12 15 17 12 12 13 15 20 18 21 14 25 30 30 36 31
19 22 24 25 15 6 9 13 15 12 8 21 26 19 26 30 23 35 17 10 4 4 5 8 5 5 5 4 9 13 12 8 8 15 21 16 20 9 17 20 19 28 33 31 41
20 22 23 24 14 10 4 12 8 11 4 8 8 10 13 8 8 28 16 10 6 7 5 5 3 1 2 5 9 14 8 8 10 12 9 3 7 12 15 19 14 9 20 27 39
22 22 19 14 18 18 15 13 7 3 4 2 6 6 17 14 7 9 17 18 9 6 6 5 2 2 4 6 8 11 7 8 8 10 5 10 3 11 6 16 17 9 16 30 42
17 16 15 13 15 15 15 13 5 0 9 6 5 8 9 9 3 9 8 9 7 5 3 6 3 5 7 3 7 8 4 12 6 3 7 13 5 12 8 10 14 10 12 24 42
17 17 17 14 15 13 12 9 2 6 8 4 3 9 12 7 8 7 7 6 6 5 4 3 6 4 4 2 4 3 4 4 4 5 9 3 9 16 10 14 14 17 27 23 42
19 18 17 18 16 8 9 1 8 7 9 15 14 11 12 7 6 10 9 5 4 3 3 4 4 4 3 7 3 11 7 3 5 4 7 11 8 11 13 18 24 28 21 25 39
19 20 20 15 12 8 6 5 6 5 4 14 16 2 6 5 1 6 9 6 6 7 6 4 4 1 6 4 8 4 7 3 3 3 3 4 6 9 11 17 13 9 20 27 35
18 19 21 9 10 10 5 8 7 6 11 9 7 11 8 8 6 2 9 2 3 3 4 2 2 2 5 5 6 9 3 4 3 3 3 4 4 4 7 12 15 7 13 28 36
13 7 15 6 15 11 9 8 7 15 17 7 8 10 9 6 7 6 2 1 2 2 7 3 2 2 1 7 9 5 4 4 1 3 2 3 3 10 18 21 10 7 17 27 32
7 2 5 4 8 5 10 7 7 15 20 13 7 13 5 8 4 4 3 1 5 3 5 3 3 4 9 7 10 5 2 6 3 4 4 1 5 15 18 16 18 7 9 25 38
5 9 16 16 3 7 4 10 14 18 17 5 6 5 11 6 4 2 5 5 6 3 3 4 1 3 6 2 7 3 8 9 4 0 5 4 2 9 14 19 25 16 22 20 21
4 3 4 10 21 5 6 11 13 18 16 21 16 16 15 7 3 4 3 4 5 3 6 4 1 4 3 4 2 4 5 5 8 4 7 7 4 4 12 15 17 20 26 34 32
8 4 6 3 4 8 7 6 13 12 16 22 7 15 14 4 5 5 1 3 3 9 3 3 2 2 7 12 14 15 16 14 10 12 7 7 5 4 4 10 11 14 24 33 33
7 2 3 4 11 1 9 9 14 7 4 6 3 6 1 2 2 3 2 1 3 2 3 1 3 2 5 7 7 14 16 17 17 19 14 20 7 3 7 3 13 8 22 30 28
10 18 4 5 4 6 3 9 5 5 10 16 6 6 3 1 2 6 7 6 2 6 7 4 1 1 4 7 12 11 10 14 13 15 18 17 13 2 9 8 11 13 22 28 27

GFSSW_850_spd_081.txt.gz
Wind_Speed
15 15 15 15 16 17 18 18 18 20 22 23 23 23 24 26 27 25 26 18 15 17 18 12 11 8 7 10 12 9 1 5 9 10 11 7 4 13 16 13 22 15 7 7 21
17 18 18 19 20 19 18 18 19 20 20 22 25 25 24 27 28 27 2 10 6 9 11 12 12 10 6 5 9 6 5 11 8 13 10 8 2 26 11 24 26 23 17 13 19
19 20 20 21 22 22 21 21 21 20 22 22 23 27 24 25 24 3 6 7 6 4 6 9 11 12 12 9 9 7 11 5 8 27 21 15 7 21 8 15 26 23 35 20 22
20 22 25 24 24 24 24 23 22 23 22 22 22 25 25 22 5 7 9 3 3 5 5 7 7 8 5 7 15 6 11 19 10 22 15 9 22 8 15 23 40 38 30 22 27
20 23 24 27 26 25 26 24 24 23 23 22 22 23 24 11 22 14 17 11 3 8 7 6 9 7 5 5 11 9 8 13 22 22 23 27 19 16 27 35 40 39 28 29 29
21 23 25 27 27 27 26 26 25 24 23 21 20 20 12 9 6 5 13 23 11 11 10 8 6 7 9 5 6 7 9 16 18 23 22 15 22 13 27 33 39 36 30 32 34
19 21 26 28 28 28 26 26 25 23 22 22 19 19 16 36 17 17 17 16 13 12 13 12 8 6 1 5 11 10 9 8 7 4 7 17 21 10 32 29 35 32 31 31 37
21 24 28 27 30 29 25 25 24 22 24 23 21 15 16 17 17 13 13 22 20 13 14 16 13 13 6 8 7 4 4 6 1 8 8 12 29 17 28 24 29 31 33 30 35
22 23 26 27 29 29 25 23 20 17 19 13 13 12 17 11 12 2 4 4 10 8 9 12 14 11 5 2 4 2 11 11 7 7 7 8 18 8 13 15 20 28 34 30 29
22 24 27 28 29 27 23 20 12 8 7 2 5 6 15 5 3 3 5 4 6 6 5 8 6 3 2 4 7 4 7 6 4 4 5 7 15 9 14 13 20 27 33 34 30
18 20 23 28 28 25 20 15 11 4 16 10 11 16 17 9 9 8 8 5 4 8 5 3 3 6 8 6 4 5 9 16 8 8 9 13 16 15 12 11 13 28 29 37 29
19 19 22 27 29 19 11 8 10 15 18 28 33 39 47 39 16 21 13 3 4 6 4 1 6 8 6 6 7 7 9 11 11 9 8 6 19 18 16 15 21 22 25 34 29
22 23 23 25 24 12 13 6 15 19 8 20 30 23 30 29 26 40 21 5 5 6 6 6 4 3 5 6 7 10 8 10 13 6 10 12 23 15 17 12 17 23 27 27 31
21 21 21 22 12 19 7 9 11 15 5 7 7 10 14 14 9 39 22 15 5 11 6 5 2 3 3 4 5 9 6 11 11 5 6 4 12 14 10 14 12 16 19 20 26
17 17 16 14 17 18 18 10 9 6 5 3 4 3 13 13 5 8 24 17 9 6 7 5 5 3 4 5 4 5 9 13 3 4 7 6 7 3 9 10 13 7 21 13 28
17 16 15 14 16 12 19 8 5 2 9 7 1 3 5 9 2 8 10 9 7 5 2 4 2 5 6 4 4 4 7 4 2 2 7 9 9 4 7 13 15 10 11 14 25
16 17 15 15 17 15 15 7 1 5 8 7 9 9 11 4 3 4 6 6 6 5 5 2 4 2 3 1 4 4 3 2 2 3 7 0 10 14 10 6 9 12 22 15 15
16 16 15 16 14 11 11 1 9 9 6 11 12 17 9 5 6 6 7 4 1 4 3 5 2 7 4 6 4 6 5 3 5 3 3 12 7 6 8 12 21 23 29 25 20
16 18 20 17 11 8 2 7 4 3 4 11 12 7 9 11 14 5 8 8 6 6 5 4 3 2 5 5 5 3 8 3 6 3 3 4 7 6 17 7 10 13 20 27 18
15 17 20 9 7 8 3 11 3 4 7 5 5 7 6 11 13 5 8 0 4 4 3 3 1 1 2 4 5 5 5 2 4 4 3 4 5 4 16 17 18 15 12 24 20
12 7 6 8 6 8 4 6 6 11 14 6 5 6 6 8 16 5 2 1 4 3 7 3 2 1 1 6 6 4 3 4 4 3 2 4 2 4 7 13 18 19 29 18 28
5 2 4 6 3 4 6 4 3 10 9 5 5 8 4 8 11 7 4 4 3 1 4 3 3 4 9 3 5 3 2 5 3 3 4 3 5 4 5 16 20 22 32 9 18
3 7 12 15 3 1 5 9 8 10 11 4 5 2 4 5 6 4 4 1 5 4 4 3 3 3 6 4 2 1 1 5 6 3 6 3 5 8 11 16 28 27 33 12 15
2 3 5 7 8 3 5 8 7 15 14 15 10 12 13 7 17 4 2 2 5 5 7 4 3 4 3 4 1 6 8 7 4 4 4 8 10 5 4 15 20 30 23 24 28
5 4 5 3 2 10 5 4 9 9 13 16 4 12 8 4 11 4 3 3 5 7 3 3 3 3 6 10 11 14 15 14 15 14 7 12 12 7 5 3 12 25 18 23 25
4 3 3 6 9 3 1 3 11 16 5 5 12 7 6 8 7 2 2 3 3 1 3 0 1 1 4 7 7 12 18 15 14 18 16 16 18 6 3 11 7 17 16 22 22
10 15 11 4 4 1 2 5 11 12 11 12 3 4 4 3 3 4 3 2 2 4 3 2 2 2 4 6 11 8 4 6 9 17 15 16 16 8 2 7 7 6 18 16 18

GFSSW_850_spd_084.txt.gz
Wind_Speed
15 17 17 18 19 20 22 22 23 23 23 24 25 26 27 26 26 26 27 19 14 14 20 15 9 9 11 10 9 7 1 4 8 8 9 4 3 5 4 13 8 7 12 18 18
16 17 19 20 20 21 23 24 24 24 25 26 26 28 28 29 29 28 5 6 11 12 24 17 12 9 6 5 8 5 5 9 7 8 7 2 2 9 4 9 18 23 14 11 24
19 19 20 22 22 22 22 23 23 24 25 26 27 28 29 28 26 4 8 6 7 7 15 13 9 10 7 7 8 6 7 6 6 17 11 11 9 20 5 7 22 23 26 27 25
20 21 22 24 25 26 25 24 24 24 24 25 26 27 29 24 6 4 8 7 8 8 9 9 8 6 5 6 12 5 7 16 3 14 7 8 13 11 16 18 35 33 31 29 28
18 20 23 25 27 27 27 26 26 25 24 24 24 25 26 13 21 15 14 13 8 10 10 10 10 7 5 4 5 6 4 9 14 16 18 21 19 24 12 26 35 33 31 27 27
19 21 24 27 28 29 28 27 26 25 23 23 22 23 18 7 9 7 19 22 15 10 13 13 6 10 4 5 4 3 4 12 15 23 23 15 22 12 12 24 28 31 29 27 28
19 22 24 26 29 30 31 27 26 26 25 24 23 22 22 37 22 21 16 13 20 15 16 15 11 7 2 3 8 8 7 7 6 8 8 14 17 15 24 30 27 27 29 27 26
20 22 26 27 29 29 31 28 26 26 24 20 19 17 16 23 22 24 17 22 20 19 17 14 12 10 5 7 6 4 3 2 4 4 7 11 32 7 19 23 30 29 27 26 24
22 22 23 26 30 30 31 26 22 21 19 14 11 10 15 11 13 8 7 8 10 22 17 14 13 10 5 3 4 2 6 4 6 4 5 8 18 2 8 9 13 17 19 22 23
21 21 23 26 30 30 28 25 18 14 13 9 5 7 12 7 7 4 7 5 5 11 12 9 7 4 3 4 7 6 5 3 3 4 6 10 22 9 17 19 19 27 25 23 29
20 23 24 26 28 25 25 22 13 5 21 11 19 21 36 22 19 6 5 4 5 7 5 5 4 7 9 5 2 3 4 7 4 5 9 17 25 24 12 13 14 23 23 29 32
21 23 24 26 24 17 16 8 12 15 18 30 33 39 42 41 24 38 16 5 6 5 4 1 8 7 7 5 5 5 7 8 7 5 6 10 21 20 10 14 22 22 29 29 31
19 18 21 24 18 17 13 4 17 22 8 18 23 19 18 16 24 35 16 9 5 7 7 6 4 5 7 5 5 5 5 4 8 8 9 9 22 15 14 17 24 26 28 29 29
16 16 19 22 9 20 8 14 13 15 5 8 5 6 6 8 8 34 28 19 6 10 6 7 5 6 4 4 7 3 5 4 7 7 2 4 9 17 8 12 10 13 21 29 31
14 15 16 17 17 18 17 17 9 5 6 4 4 5 3 6 18 7 27 22 12 7 6 5 5 4 3 5 6 5 2 3 4 4 6 7 4 7 6 14 12 11 24 24 24
14 15 16 14 15 13 17 14 7 1 8 7 3 11 9 8 7 5 11 8 10 5 1 5 1 4 6 3 5 3 1 4 4 2 5 10 11 4 4 6 6 7 16 20 13
14 14 14 16 15 16 15 9 2 4 8 6 9 13 14 11 4 6 5 4 5 5 5 2 4 3 3 1 1 2 2 2 3 3 5 6 7 12 19 20 14 11 15 19 14
14 15 14 16 16 12 9 3 4 3 6 12 13 17 6 15 8 4 7 4 1 5 4 6 2 7 4 4 3 4 4 2 4 3 4 5 5 5 7 13 21 24 23 17 15
16 16 16 14 7 5 3 3 3 2 9 11 15 5 5 9 9 7 5 7 7 7 4 4 1 2 2 3 5 3 4 2 4 3 5 4 7 4 14 17 19 22 31 29 26
15 16 9 9 5 6 3 5 4 6 12 8 4 6 6 13 9 12 3 2 4 6 2 4 4 2 1 3 1 3 3 1 3 3 4 4 4 3 10 16 19 24 23 35 34
12 8 6 8 2 3 2 4 3 14 14 5 6 8 7 8 9 7 2 4 3 2 5 3 3 1 1 3 5 2 1 2 1 3 2 3 4 4 2 5 15 20 30 35 20
6 2 4 5 1 2 2 2 2 7 9 5 5 9 12 1 7 7 5 5 9 2 4 1 4 2 6 2 3 1 4 4 3 2 4 2 5 3 6 3 10 19 34 37 3
3 5 6 7 0 2 3 7 8 5 6 4 4 7 2 6 6 7 5 2 6 3 4 4 2 1 2 2 3 2 2 3 2 4 5 4 4 4 13 13 10 19 28 30 16
1 2 3 1 2 2 4 7 6 10 14 14 9 10 12 6 9 9 14 7 2 3 7 3 2 3 3 2 2 3 3 5 5 3 5 8 13 15 11 12 12 22 19 19 18
2 2 2 3 3 3 4 3 11 10 13 10 5 16 13 5 5 4 6 5 6 4 3 3 3 1 3 5 2 6 9 11 10 13 9 16 14 16 11 10 5 20 16 17 19
3 1 2 7 12 5 4 3 12 9 4 6 12 9 10 8 6 3 6 3 2 3 2 2 3 3 3 4 2 4 15 14 12 14 15 19 22 17 13 4 7 18 16 18 19
6 8 5 6 4 1 3 3 10 13 13 21 9 4 5 9 20 17 14 5 3 3 1 2 3 2 3 4 6 5 5 4 6 8 14 13 17 4 4 3 8 15 17 16 17

GFSSW_850_spd_087.txt.gz
Wind_Speed
14 15 17 18 18 19 20 20 20 21 22 23 23 24 26 27 29 27 26 22 18 15 21 16 11 12 17 13 9 7 5 7 9 8 8 2 4 7 6 6 5 6 12 13 6
16 17 17 18 19 19 20 20 21 21 22 23 23 24 27 27 30 30 9 11 14 15 18 23 18 15 9 9 8 6 7 10 7 11 9 8 11 10 5 8 12 18 25 12 10
15 16 18 18 20 21 21 21 22 22 22 24 26 26 26 25 24 2 2 1 4 7 14 19 15 16 6 6 8 6 11 6 5 17 7 13 14 16 14 14 21 21 21 14 25
15 17 19 21 21 22 22 23 24 24 23 23 23 25 27 22 7 3 5 3 3 5 12 13 13 10 6 7 8 5 8 13 10 14 10 12 23 18 20 19 26 27 29 26 25
15 16 19 21 23 24 24 23 24 24 23 24 24 25 24 10 19 18 19 14 9 8 11 12 12 8 6 6 6 7 6 10 11 17 16 18 20 20 13 20 27 30 31 29 24
15 19 21 23 25 25 26 25 24 24 24 23 23 24 17 5 9 9 14 17 13 11 12 13 8 12 5 5 6 5 5 7 9 16 16 19 26 20 24 23 22 27 29 29 25
17 19 22 23 25 26 26 24 24 25 24 21 19 19 17 28 21 23 19 23 17 23 16 15 15 7 5 2 4 4 7 7 8 13 10 7 20 16 31 25 22 26 27 28 26
17 19 20 21 24 25 27 26 22 23 22 20 17 15 12 18 16 16 16 20 20 19 21 16 14 12 6 6 2 3 4 5 2 3 6 8 15 12 11 12 16 18 24 31 29
17 19 22 24 26 26 27 25 21 19 16 16 13 7 12 6 6 6 7 9 6 15 22 15 14 8 4 3 5 1 8 6 6 2 3 8 11 3 21 20 20 21 19 22 23
17 21 22 25 28 28 27 26 15 12 9 7 7 5 7 9 7 10 10 4 3 6 15 10 6 5 4 7 10 6 6 5 7 2 12 18 26 17 18 24 24 22 26 24 26
18 21 22 24 26 22 26 19 12 4 21 12 22 22 38 33 37 28 11 9 4 8 9 7 7 14 18 16 13 3 4 8 6 8 12 18 25 16 18 22 24 26 28 27 28
18 18 19 19 18 22 17 12 14 12 15 31 36 33 35 31 17 22 21 5 6 10 5 4 16 11 9 10 11 13 14 14 8 9 7 14 29 22 22 24 30 30 33 31 32
15 16 18 19 11 20 14 16 16 18 6 16 15 10 13 4 8 22 19 19 8 12 12 13 5 10 11 7 10 11 13 8 9 8 11 14 18 7 6 14 25 31 36 34 33
14 15 17 19 7 19 7 14 10 12 4 7 4 2 5 4 6 16 17 17 11 16 11 11 7 5 9 11 12 13 9 9 6 4 4 6 10 8 2 8 12 18 22 26 31
13 15 15 15 13 12 16 14 5 1 6 3 4 2 16 5 18 3 10 26 12 9 9 6 7 8 12 8 9 4 4 4 4 5 4 4 5 4 12 8 10 15 18 24 28
13 13 13 13 12 13 15 9 1 1 7 7 4 13 19 21 7 3 2 8 15 4 1 6 3 4 4 4 7 5 2 3 3 4 5 9 9 3 5 9 22 18 22 18 20
12 11 12 13 12 11 11 4 1 4 7 5 8 13 18 10 9 12 4 12 5 11 10 3 3 2 2 5 2 4 3 2 2 4 5 4 9 12 15 8 12 15 21 21 20
12 12 13 10 9 5 5 2 5 2 5 10 12 17 9 11 7 9 10 9 6 3 8 10 5 9 5 4 5 9 5 3 3 3 2 3 7 2 3 5 9 16 19 21 20
11 12 9 9 9 2 1 1 3 2 3 10 13 6 4 9 11 9 7 12 6 7 4 7 2 2 3 3 5 5 4 0 2 4 4 4 5 5 6 9 12 15 23 30 29
11 10 9 10 8 4 3 4 4 4 8 8 5 5 6 12 14 12 5 5 5 7 2 5 6 0 3 3 2 2 4 3 2 2 3 4 6 6 7 13 16 19 21 27 33
8 3 7 11 5 2 1 4 5 11 9 4 6 9 10 12 8 6 6 12 8 4 3 4 3 4 5 4 7 4 2 2 1 2 2 2 2 2 8 13 13 16 23 25 31
4 2 2 8 2 0 2 3 7 12 10 7 6 10 13 11 7 4 7 7 21 20 5 2 3 4 3 1 4 2 4 4 2 2 2 4 6 4 12 14 12 16 19 22 28
2 2 3 4 2 1 5 6 7 8 6 3 5 7 10 6 6 8 6 6 22 6 5 4 1 5 3 3 2 3 4 2 3 2 5 4 3 3 17 16 20 15 18 18 26
2 2 2 2 1 2 3 6 5 8 12 10 11 11 15 9 10 7 7 8 14 6 8 3 3 1 3 5 3 2 3 2 3 3 5 10 17 21 17 19 16 13 15 17 24
2 0 1 2 2 3 3 3 9 8 4 12 6 15 13 4 5 6 5 7 7 11 3 3 4 4 2 4 3 3 6 6 7 12 7 16 16 22 19 18 7 8 12 17 23
4 2 2 6 9 0 3 3 9 8 5 9 9 17 12 9 9 6 2 4 4 5 5 4 2 2 2 1 4 6 11 10 10 10 13 17 20 14 13 17 7 10 14 17 18
4 4 3 4 2 1 2 4 10 15 13 16 19 16 12 12 11 17 14 14 8 6 2 2 3 2 3 2 7 4 1 4 7 8 9 13 14 16 9 12 11 11 14 17 15

GFSSW_850_spd_090.txt.gz
Wind_Speed
10 12 13 14 14 14 15 16 17 19 20 21 21 22 23 24 24 24 21 16 17 16 18 15 9 14 19 18 15 15 11 17 20 16 14 8 9 15 9 14 10 9 9 4 7
9 10 12 14 15 16 16 17 18 18 20 21 23 24 23 24 24 20 7 10 11 13 13 15 14 15 18 20 15 16 15 24 17 12 14 16 12 14 10 15 15 15 17 15 10
10 11 12 14 15 16 17 17 18 18 19 20 21 23 24 24 17 2 4 6 5 5 12 13 14 17 19 15 20 16 24 16 12 19 22 20 20 19 18 18 19 22 21 15 12
10 12 13 15 16 17 18 18 19 19 20 21 22 22 22 18 8 3 6 7 4 3 4 11 13 18 16 16 18 15 18 21 18 20 20 19 24 25 24 24 21 23 21 19 20
10 13 15 16 17 18 20 20 19 20 19 19 20 20 18 7 13 13 11 11 9 6 7 10 14 16 16 12 19 19 20 18 20 21 23 22 25 26 28 18 22 23 22 23 23
11 13 14 16 17 18 18 19 19 21 20 18 18 18 9 10 12 10 11 7 12 12 9 12 9 14 16 16 16 11 14 19 15 19 21 19 24 28 22 20 24 24 26 25 23
11 11 13 14 16 18 19 19 19 20 19 17 16 15 11 18 16 17 19 21 16 15 17 12 14 10 4 12 15 14 16 17 18 20 19 17 23 27 29 24 23 25 24 25 26
10 11 14 15 17 19 20 20 21 18 16 16 14 11 10 15 13 10 8 12 18 21 20 20 11 14 18 14 12 10 14 14 10 11 12 13 21 9 5 7 8 12 15 17 20
10 12 15 18 20 22 22 22 19 14 12 13 6 5 9 4 1 3 8 8 6 9 20 10 10 16 13 15 15 14 16 14 11 11 7 12 11 2 6 12 14 16 19 20 18
11 14 16 18 20 21 22 22 13 10 7 10 4 8 6 4 14 10 9 11 6 5 8 15 12 12 13 14 16 15 19 12 14 6 10 17 20 18 21 24 24 26 26 26 26
11 13 15 17 18 22 24 12 9 2 16 10 19 20 28 17 19 16 12 13 13 11 14 19 14 19 22 20 17 12 14 15 9 8 17 21 21 19 17 25 23 27 29 31 32
10 12 12 14 14 18 17 10 6 8 13 19 18 18 16 12 9 11 9 11 20 18 14 11 22 20 15 14 17 20 21 20 17 13 14 19 21 21 23 20 30 30 30 30 30
11 11 11 13 10 15 12 12 9 9 7 11 4 5 4 3 5 7 3 10 21 19 19 19 4 17 17 16 17 18 18 14 15 14 19 21 22 14 4 11 15 17 19 23 28
9 11 11 11 6 11 4 11 8 7 5 3 3 3 4 5 6 16 7 10 13 26 21 18 20 7 15 19 16 17 14 14 14 10 7 1 6 11 6 5 7 4 11 16 22
8 9 10 11 6 5 8 9 4 1 6 3 4 4 11 5 17 4 7 8 19 21 15 17 10 18 16 13 14 13 5 10 9 10 12 16 8 5 7 9 6 11 14 16 16
7 8 11 9 7 6 7 4 0 5 8 2 2 6 13 17 13 11 7 7 11 16 20 21 3 10 14 14 12 5 7 8 8 8 10 17 13 4 2 8 11 12 16 16 16
6 8 10 9 4 6 5 1 5 6 5 3 7 12 17 16 12 7 8 8 9 13 19 19 13 5 8 11 9 14 11 5 7 5 6 4 8 9 8 4 8 12 18 19 19
6 7 8 8 7 4 3 4 8 4 7 14 16 21 17 9 8 10 5 9 12 15 12 17 15 14 10 12 8 16 13 6 8 6 3 8 6 4 3 1 7 14 19 22 25
5 5 8 9 7 4 2 5 6 7 5 10 18 14 9 3 11 9 10 10 9 17 14 16 17 10 11 10 11 9 9 5 4 5 5 7 8 7 4 5 10 15 21 24 26
5 6 9 9 7 3 2 4 4 6 11 10 14 9 11 16 16 12 10 5 11 10 10 6 11 12 10 11 6 7 9 4 5 5 6 5 8 3 6 11 15 17 20 25 26
4 4 2 6 6 1 1 2 8 7 9 6 9 14 16 17 14 15 8 8 3 13 11 9 8 12 12 11 16 7 7 5 2 3 3 2 3 7 8 12 15 16 20 23 23
4 2 2 4 2 0 2 5 9 10 8 10 8 12 12 11 11 9 9 7 9 12 10 11 4 10 12 5 6 6 7 9 5 5 1 3 5 6 7 14 15 16 18 18 19
3 2 4 3 1 2 3 7 8 12 9 5 9 10 11 12 7 9 9 9 16 5 7 6 6 8 8 5 4 7 4 5 4 0 7 3 1 2 15 17 19 15 16 15 17
3 1 1 3 3 4 7 5 8 10 13 9 11 15 14 12 9 11 13 11 20 16 25 18 2 4 7 8 8 6 9 8 6 4 4 8 14 14 17 18 15 13 12 10 12
3 2 2 1 2 6 5 5 11 9 5 17 6 8 12 6 11 13 9 10 11 12 3 2 9 10 9 8 5 5 7 9 9 7 6 9 13 15 15 16 22 8 7 8 12
3 1 1 2 4 4 2 4 9 12 7 13 10 19 19 14 14 16 14 13 4 11 9 11 5 5 6 4 3 3 5 8 8 8 8 13 12 11 22 21 10 8 9 8 10
4 2 1 1 2 3 2 6 15 13 10 14 19 17 13 13 12 16 18 23 14 8 7 5 1 2 3 2 5 4 2 1 1 5 9 13 15 16 15 7 11 8 8 8 9

GFSSW_850_spd_093.txt.gz
Wind_Speed
9 9 9 10 10 11 12 12 13 14 15 16 17 19 18 19 19 18 16 15 14 20 14 11 12 15 20 26 26 21 17 23 28 25 23 12 16 25 18 20 18 15 20 2 2
8 9 9 10 11 12 12 13 14 15 16 17 18 19 18 20 23 20 12 9 7 9 10 14 16 15 22 22 28 20 17 29 22 21 17 10 25 21 14 16 22 18 17 19 13
9 9 10 11 12 14 14 14 15 16 15 16 18 19 18 18 17 3 1 5 7 5 6 11 16 18 22 25 27 27 26 24 27 24 20 19 23 26 20 20 19 19 21 22 18
10 10 11 12 13 14 14 14 15 16 16 16 17 17 17 12 6 4 11 11 8 6 8 10 15 20 21 23 27 26 30 26 28 34 17 22 29 28 28 26 22 24 24 24 22
10 10 10 10 11 11 12 13 14 15 14 15 16 14 13 8 16 12 12 7 6 6 9 11 15 19 21 21 25 24 24 26 30 23 29 27 27 28 32 30 27 26 29 27 25
9 8 8 9 10 11 13 13 14 16 16 16 14 13 6 13 5 5 10 7 7 12 14 15 15 16 22 20 21 23 25 24 25 32 29 25 28 32 36 32 29 30 29 27 26
7 6 7 10 12 12 13 15 16 16 15 13 12 9 11 19 10 11 12 13 15 14 18 17 18 17 9 17 26 23 22 20 21 24 22 25 28 29 35 34 33 31 30 30 29
4 6 7 9 12 14 16 18 17 15 13 11 8 2 9 8 8 9 7 10 11 17 19 17 16 22 24 23 25 15 20 20 18 21 26 25 30 24 27 20 32 31 30 30 28
4 6 7 11 13 16 18 18 15 12 9 8 5 4 8 5 2 4 5 8 10 11 17 19 17 23 20 19 18 20 20 23 22 18 11 17 20 16 4 9 12 15 17 20 22
4 5 8 11 15 17 17 15 12 7 7 7 5 7 10 4 14 18 16 14 11 10 11 18 14 17 19 18 21 20 22 19 20 18 15 18 23 19 22 17 23 25 26 25 25
4 5 8 11 14 16 17 9 8 4 8 11 18 20 25 11 16 10 13 18 18 15 16 18 17 24 26 24 24 18 21 17 17 16 11 15 21 23 23 26 25 29 28 28 28
4 5 8 10 9 12 14 5 3 6 14 20 22 19 17 9 8 4 3 10 19 21 20 19 24 23 22 22 20 21 23 23 21 20 19 20 24 24 22 19 28 28 26 25 24
4 6 7 8 6 10 8 9 7 7 9 10 8 7 5 5 7 10 4 8 16 22 23 25 23 21 26 20 20 21 23 19 20 17 17 20 25 27 27 23 29 25 21 16 17
4 6 6 7 5 6 2 9 7 6 6 10 8 6 5 5 12 11 19 14 15 19 22 25 23 24 16 26 22 22 20 20 18 16 11 6 9 14 5 9 8 5 5 9 12
4 5 7 5 4 3 7 9 6 3 6 4 7 4 4 11 15 6 9 18 20 20 17 25 29 23 20 18 20 19 15 16 16 13 16 18 10 16 13 10 11 2 6 10 11
3 5 6 8 4 6 8 4 3 7 4 3 3 6 13 18 21 21 22 16 19 20 20 24 30 20 20 23 16 14 11 12 11 11 14 17 15 10 11 7 5 6 6 8 11
2 4 5 4 2 5 3 4 7 6 5 3 7 14 18 22 22 19 14 17 15 16 17 20 27 10 12 16 20 16 14 9 10 11 13 12 12 14 12 8 3 5 10 13 14
1 4 5 4 4 2 4 9 7 4 7 15 12 20 23 23 19 11 16 20 18 19 15 16 17 23 14 14 13 20 17 9 11 10 13 14 7 7 14 6 1 7 9 13 18
4 4 3 4 3 3 8 6 7 11 11 11 17 17 14 8 7 15 16 17 16 18 12 16 23 26 19 17 14 13 18 20 13 13 6 6 10 7 9 10 5 10 12 16 20
3 5 1 4 3 2 2 4 5 6 9 11 15 10 16 16 18 13 16 4 8 10 18 9 11 8 19 15 18 12 12 9 8 5 8 11 14 9 10 5 8 10 13 18 21
4 5 2 4 2 2 1 4 7 9 11 9 16 18 17 17 16 16 13 17 5 8 14 18 12 21 17 16 19 12 12 8 6 9 6 7 6 14 9 10 11 12 15 19 22
2 1 2 2 3 1 3 5 8 8 13 12 13 15 16 15 14 16 16 8 3 8 16 15 7 11 21 20 21 19 16 16 6 10 5 4 2 4 13 13 13 14 16 17 20
2 3 1 1 1 2 4 8 5 9 11 11 11 17 16 16 10 11 12 10 16 7 6 8 5 10 9 9 12 19 12 11 3 1 8 4 1 9 12 14 14 18 14 16 18
2 2 4 3 4 4 6 4 7 11 10 7 14 18 17 14 13 10 13 9 7 18 25 14 9 5 3 13 12 10 11 10 7 5 6 8 11 12 16 13 16 19 15 15 16
3 1 2 1 5 5 3 4 10 11 9 20 9 10 12 8 16 11 12 12 11 12 7 5 4 9 12 10 13 10 10 9 7 6 5 9 10 12 14 16 20 16 17 15 16
3 3 3 4 3 1 5 4 9 12 12 13 13 19 19 16 17 15 14 13 5 8 7 7 4 11 13 11 10 9 4 2 4 5 10 9 9 18 18 19 16 17 15 16 17
2 2 1 7 6 4 2 5 10 9 11 10 16 17 15 8 15 18 16 22 14 10 5 8 4 7 9 8 4 5 4 1 1 8 13 9 16 19 19 13 13 15 15 15 17

GFSSW_850_spd_096.txt.gz
Wind_Speed
11 11 10 10 10 10 11 12 13 14 14 15 15 15 16 18 20 18 17 9 10 18 19 15 11 13 13 19 23 24 15 20 27 26 24 29 21 23 13 20 16 20 26 8 7
10 10 10 11 11 11 12 13 15 15 16 17 18 16 16 19 22 20 12 12 8 6 8 10 13 15 20 17 25 21 17 29 23 23 22 25 24 23 14 21 18 21 17 19 10
10 11 11 12 13 13 13 15 16 15 16 16 17 17 17 17 17 4 6 3 10 10 7 9 13 17 22 23 25 28 27 23 26 27 30 26 26 26 19 23 15 19 27 22 26
12 12 12 13 13 13 12 13 14 14 14 15 16 16 16 11 5 4 10 16 13 8 9 11 13 18 19 20 26 25 31 32 31 32 30 24 33 23 28 22 28 25 21 18 25
13 12 12 12 11 11 11 13 14 15 14 16 16 14 12 8 18 9 14 13 10 6 10 13 16 18 19 19 25 26 25 33 32 32 31 33 26 25 29 30 31 30 29 27 28
12 12 11 11 11 11 12 12 14 15 16 15 13 12 9 13 6 5 6 7 8 12 14 16 16 18 23 21 20 24 29 27 31 30 31 25 27 28 30 32 33 34 35 32 28
11 11 11 11 12 11 12 13 14 15 15 13 12 10 12 25 8 12 13 13 13 15 18 19 18 20 18 16 27 27 23 22 24 25 24 24 27 29 28 32 38 40 38 38 36
10 10 11 11 12 11 12 13 14 13 12 9 5 5 11 7 12 11 11 11 12 14 19 19 18 22 25 25 27 22 19 19 22 23 26 26 32 25 30 36 37 39 39 36 33
10 10 10 10 10 11 12 14 12 13 10 5 2 3 10 8 9 6 7 10 10 11 14 15 19 22 21 17 18 20 20 25 27 22 23 21 29 23 32 30 37 30 22 35 37
10 9 9 9 10 11 13 10 12 11 5 5 8 7 14 9 7 15 17 19 19 18 18 14 13 17 18 16 20 21 23 24 25 21 22 20 23 19 30 27 19 15 17 20 20
9 9 8 8 10 12 14 13 7 3 8 12 13 15 21 20 16 17 12 14 17 21 18 19 13 22 23 23 27 24 26 25 23 18 19 18 21 23 17 22 22 23 21 25 27
9 8 6 7 7 9 14 6 7 7 15 24 27 29 24 18 12 16 5 7 13 18 19 18 23 24 22 25 26 27 27 27 22 21 17 20 25 18 18 21 28 30 27 24 28
9 6 5 5 5 8 5 9 8 8 7 16 11 9 5 9 13 16 10 12 13 17 18 21 27 24 26 24 26 26 26 21 20 19 18 21 24 22 27 28 30 33 26 27 27
7 4 3 2 3 4 2 7 7 7 5 5 6 6 6 5 13 9 12 20 20 20 21 23 21 26 28 26 24 25 23 18 19 16 16 18 15 22 17 14 23 28 33 22 6
5 2 2 0 1 3 6 9 6 2 5 5 8 5 3 6 15 16 15 25 19 22 22 25 25 24 27 30 24 19 22 16 18 18 17 20 12 17 17 18 11 9 6 1 5
3 1 2 7 5 4 8 4 1 3 6 4 3 2 9 15 20 27 27 25 30 26 24 26 36 28 26 27 26 12 16 15 17 13 15 19 17 14 15 14 13 11 5 8 11
2 1 1 3 4 8 4 3 5 5 5 3 6 12 16 21 22 19 20 19 17 20 19 26 25 27 27 26 11 13 10 8 7 10 13 18 16 12 13 6 10 8 11 15 16
2 2 4 2 5 3 3 5 6 6 8 16 14 18 19 18 13 11 14 15 18 9 9 16 21 15 19 18 9 23 18 7 7 7 13 19 9 10 11 16 10 14 14 18 21
5 6 2 8 3 2 7 5 6 11 12 12 16 15 11 17 13 8 13 15 14 10 5 9 14 17 22 8 6 17 23 20 12 14 6 6 11 17 18 6 12 11 18 21 21
5 3 4 7 1 3 5 5 5 9 9 11 14 11 18 18 18 16 16 14 14 7 3 4 11 17 9 13 20 12 12 13 7 4 4 2 5 7 9 10 9 10 14 21 20
4 5 3 1 1 7 3 2 6 10 8 7 14 17 17 18 17 16 7 16 5 8 9 13 7 13 12 7 15 11 4 4 7 10 2 2 4 10 13 8 9 12 19 22 18
2 2 0 4 4 4 3 4 3 7 9 11 9 12 12 14 16 17 18 14 2 10 11 9 5 7 15 19 28 19 14 17 4 5 7 2 3 6 11 9 16 17 23 21 20
5 4 2 2 2 2 5 6 3 6 10 12 11 11 15 15 15 13 15 18 3 5 5 6 4 5 4 13 21 19 16 11 14 2 6 5 4 6 13 19 22 23 23 25 22
1 0 5 8 3 5 3 3 7 11 12 14 16 19 12 12 14 8 17 9 15 11 22 14 6 10 10 10 12 16 15 3 2 4 4 6 13 7 16 16 17 23 24 22 21
1 3 1 2 4 3 2 3 9 12 8 19 7 13 15 17 17 17 10 14 14 18 6 3 7 9 23 29 13 10 11 7 7 5 3 4 15 17 18 16 19 21 21 22 23
3 2 2 2 5 4 6 3 8 11 10 10 10 17 16 16 16 17 14 13 8 7 4 3 3 10 9 4 21 12 8 16 9 9 9 11 7 21 24 23 23 22 22 21 23
1 1 5 8 8 6 4 5 8 4 9 13 14 15 15 10 19 23 22 26 19 14 6 4 1 2 11 15 19 15 10 11 19 20 14 12 18 21 17 16 20 21 20 21 21

GFSSW_850_spd_099.txt.gz
Wind_Speed
14 13 12 12 12 12 13 13 14 15 16 16 17 16 18 20 21 20 26 10 8 6 11 14 13 11 7 11 20 24 10 17 14 15 18 24 21 37 30 22 13 6 7 5 17
14 13 13 13 14 14 15 16 16 16 17 17 16 16 17 20 22 21 13 7 8 10 11 11 8 10 16 9 7 4 9 14 9 12 13 21 20 23 18 22 10 11 5 12 14
14 13 14 15 15 16 16 16 15 14 14 15 16 16 16 18 16 4 4 5 3 10 11 9 10 14 21 23 23 11 16 11 19 26 27 17 25 27 16 9 16 9 15 16 15
15 15 15 16 16 15 15 15 15 14 14 15 16 17 15 12 0 4 8 8 11 12 10 8 8 16 4 8 25 15 22 26 27 34 35 23 28 20 21 18 28 27 19 19 20
16 15 15 16 16 14 14 14 14 14 15 16 17 16 13 6 15 13 13 13 13 9 10 8 15 17 10 8 21 17 17 26 28 31 32 32 23 22 28 25 33 35 29 25 24
17 16 16 15 14 14 14 14 15 16 16 16 16 14 10 5 4 7 11 13 12 7 14 13 15 19 21 16 11 14 20 22 29 28 26 16 15 20 26 27 36 40 36 33 32
16 16 16 14 14 13 13 14 15 16 16 14 14 12 14 25 11 9 13 15 13 11 17 17 19 19 19 12 18 23 14 17 19 14 11 20 18 15 22 25 34 40 41 38 40
16 16 15 14 13 12 13 14 14 15 13 11 10 8 12 8 8 17 12 11 9 12 13 13 23 25 14 17 19 15 8 9 12 15 21 12 22 19 24 30 35 36 37 37 44
17 16 14 12 11 11 12 14 13 13 11 6 6 5 11 6 9 7 6 7 9 12 9 13 15 24 16 5 9 7 15 16 20 10 15 10 20 15 24 34 32 34 36 38 41
16 15 13 10 9 10 11 12 9 12 6 6 4 7 12 7 5 10 12 14 18 18 19 16 14 7 2 6 16 4 10 14 18 22 15 18 22 18 22 23 21 27 28 34 26
15 13 10 8 6 6 9 5 5 4 8 12 10 13 13 14 20 16 17 15 13 13 6 16 10 14 9 14 19 17 19 21 19 13 13 18 11 16 13 22 23 26 24 28 31
13 10 8 6 2 6 11 5 6 8 14 22 29 34 33 30 16 16 13 7 7 6 6 6 20 14 12 17 19 22 25 25 22 21 17 14 12 9 9 9 22 21 24 28 30
12 8 7 3 3 6 5 7 7 10 4 17 13 14 5 8 9 12 11 11 7 9 8 13 11 12 16 20 23 22 20 19 19 16 8 8 15 9 16 19 35 31 34 40 35
10 8 5 3 3 5 5 5 11 9 3 4 4 2 4 2 3 8 8 15 13 15 12 13 11 17 20 21 19 21 17 21 20 19 8 3 15 14 11 21 24 31 44 34 29
10 7 5 5 5 7 5 10 4 3 3 9 5 6 3 6 11 4 26 26 13 15 13 20 15 19 23 23 20 23 19 19 21 17 3 9 6 16 11 19 22 20 19 31 26
10 8 8 7 5 5 5 2 4 1 6 4 6 3 4 13 17 24 29 28 31 17 18 19 24 6 10 20 24 23 18 7 15 3 9 14 9 13 15 14 13 6 19 24 21
8 7 6 7 5 7 1 3 2 3 2 6 9 9 13 13 14 15 8 8 6 6 8 11 13 14 19 23 22 16 16 4 4 3 11 9 11 19 13 20 1 3 23 27 25
8 8 5 3 3 2 5 2 3 3 6 8 11 11 6 9 8 14 13 9 12 6 4 5 11 2 9 13 15 18 10 5 5 5 8 12 9 10 11 5 22 16 29 31 30
11 10 3 5 3 7 2 2 3 6 9 11 11 6 7 18 14 13 14 13 8 4 1 4 10 19 20 15 17 6 6 18 11 7 3 4 7 7 21 15 16 21 28 27 29
13 8 4 5 3 6 3 3 3 9 9 7 4 5 11 12 10 9 7 9 14 5 4 4 14 7 12 15 7 1 3 2 6 2 4 1 3 4 12 17 6 17 21 27 32
11 5 5 1 3 3 2 2 4 10 4 3 7 9 10 11 8 8 6 14 9 5 4 6 6 13 13 4 7 2 1 6 8 4 2 2 4 3 9 12 16 18 27 27 31
4 3 3 5 2 4 2 2 1 2 7 7 4 7 7 9 13 12 13 11 15 3 5 6 5 7 17 18 7 13 10 12 3 2 4 5 2 7 8 6 17 24 26 25 31
4 5 4 5 1 2 3 3 3 3 5 7 5 8 13 10 9 6 11 12 12 3 4 3 3 5 9 2 3 4 9 6 4 6 3 2 2 8 11 19 26 25 26 32 31
2 2 3 4 2 2 4 4 6 12 7 13 12 12 8 10 10 7 11 6 8 5 11 3 6 10 7 6 8 6 17 11 5 4 1 4 9 16 17 18 21 28 29 26 27
3 2 2 2 1 6 2 1 5 4 4 11 4 10 11 5 14 6 8 6 6 12 3 3 7 12 19 21 15 15 20 15 10 4 3 11 20 13 16 16 20 21 23 25 27
4 1 3 6 7 3 1 3 5 3 2 6 6 11 11 11 13 12 10 7 6 4 6 3 5 7 20 18 15 6 12 19 12 15 10 12 15 11 17 19 21 23 24 25 25
4 3 2 9 5 4 4 5 4 6 5 7 8 11 11 10 15 21 19 20 17 14 12 4 3 4 8 20 15 11 17 20 19 20 13 14 8 8 12 16 22 23 23 23 23

GFSSW_850_spd_102.txt.gz
Wind_Speed
16 15 15 15 15 14 15 17 18 19 21 20 20 19 19 21 19 20 25 16 10 6 7 8 12 14 9 10 18 11 2 7 7 9 6 18 15 32 15 15 23 21 7 7 24
18 17 15 15 15 15 16 18 18 18 18 19 18 18 18 20 20 21 9 8 7 3 6 10 10 8 7 7 8 7 6 8 7 6 12 16 20 27 13 17 17 19 20 16 27
19 18 17 16 16 16 17 18 17 16 16 16 17 18 18 19 19 1 5 7 2 3 7 11 8 5 9 12 9 5 13 9 11 20 22 14 18 24 20 11 9 12 18 12 16
20 19 18 18 18 18 16 15 15 16 16 16 18 19 17 14 5 2 2 7 6 8 7 7 7 4 2 6 15 9 20 15 16 27 24 16 29 22 24 22 23 25 24 17 14
21 20 19 19 19 17 16 15 15 16 16 17 18 19 15 8 17 11 10 7 8 9 6 4 7 4 4 6 10 9 14 23 29 31 34 36 27 24 34 34 25 21 26 28 27
20 19 20 20 19 17 17 15 16 17 17 18 18 16 12 7 6 3 2 7 8 9 7 7 7 11 14 7 6 13 16 18 22 25 29 17 21 19 30 31 31 26 30 34 38
20 18 20 21 18 16 16 15 16 17 17 17 16 14 17 25 8 11 7 9 9 9 10 11 15 13 13 10 13 15 12 15 17 13 10 7 17 19 22 22 31 33 33 35 39
22 20 20 20 18 16 16 15 15 17 16 14 14 12 13 8 8 18 11 8 11 16 18 12 8 13 5 9 10 7 6 5 3 3 7 10 22 25 23 22 28 32 39 43 44
21 22 20 19 16 15 15 15 16 17 14 12 7 6 14 5 4 3 4 5 8 8 5 10 13 14 6 3 6 2 13 11 23 2 6 8 14 19 21 24 27 31 39 40 45
24 21 19 16 13 13 12 13 11 11 11 9 7 6 11 4 5 4 6 8 12 12 11 10 2 1 3 4 9 1 6 7 14 12 8 18 20 21 33 25 27 32 39 39 37
22 21 16 13 9 7 7 4 3 2 9 12 8 11 6 8 13 8 10 13 9 6 4 5 3 5 6 9 13 13 16 19 24 25 19 21 24 20 25 19 19 27 31 36 36
22 17 13 10 6 4 3 2 2 5 10 19 27 33 33 26 17 29 13 6 7 5 2 3 8 10 10 8 12 15 18 23 21 22 20 22 25 23 14 13 23 22 27 31 32
21 15 12 9 8 6 4 2 5 9 3 10 7 7 6 9 7 7 2 2 4 5 6 8 4 8 8 9 9 13 19 20 22 24 22 16 22 18 18 10 23 29 29 33 35
20 15 12 8 9 9 9 5 7 9 1 4 3 4 5 5 3 3 12 5 3 3 7 12 8 8 10 15 11 16 13 13 18 18 16 6 18 22 10 14 17 24 27 35 36
18 15 11 12 9 10 6 5 6 3 4 7 6 5 3 7 9 3 18 11 3 11 3 14 15 12 16 16 17 20 10 15 19 19 8 20 12 18 8 16 14 11 21 30 15
17 15 14 13 12 9 3 1 3 1 5 2 7 7 6 8 10 7 15 14 13 6 7 17 10 6 9 8 9 11 12 15 14 2 8 15 15 25 15 16 16 6 24 27 19
16 15 15 13 10 6 3 4 1 3 6 5 6 5 4 6 5 7 7 6 3 7 7 10 7 6 9 5 5 2 4 7 4 5 12 12 12 15 13 17 12 12 26 24 18
17 16 14 10 8 8 10 2 3 4 4 5 3 3 2 9 5 10 9 6 8 4 4 4 7 4 6 1 7 11 5 5 8 4 5 9 5 2 12 16 22 19 18 28 29
18 16 11 7 6 11 7 2 1 1 3 4 2 2 3 9 3 5 5 6 1 2 3 4 5 15 17 16 3 2 9 15 10 8 7 5 5 5 12 19 19 24 25 25 26
22 16 9 7 10 10 4 2 3 4 2 3 3 3 4 5 4 5 2 6 8 6 4 3 12 8 12 10 10 10 5 3 1 4 7 7 2 3 13 15 13 17 23 23 26
20 7 7 9 11 4 3 3 6 3 4 2 1 3 5 5 3 2 5 10 9 5 4 3 5 8 9 6 4 3 1 4 3 3 4 3 3 5 6 14 14 17 23 25 28
9 3 9 10 3 2 3 4 3 2 1 3 2 2 2 5 4 4 7 5 9 3 5 1 4 7 14 23 16 13 6 4 3 4 6 2 4 6 14 15 16 20 26 22 22
11 7 5 8 3 0 1 2 4 5 4 4 3 5 3 3 3 4 4 7 9 1 3 2 3 6 12 2 8 4 2 2 6 2 2 2 4 10 12 15 21 24 23 23 28
7 3 4 4 3 4 3 2 3 8 3 6 3 2 2 2 4 5 10 8 5 10 12 7 6 10 10 10 7 6 12 11 4 2 4 5 6 14 16 17 21 28 27 27 31
4 3 5 2 0 5 4 2 2 2 3 5 3 4 3 4 8 6 4 5 7 8 5 4 7 12 19 21 15 14 13 13 16 7 5 4 10 13 14 15 21 22 24 27 31
5 4 5 6 11 5 3 2 4 2 3 2 3 6 6 5 8 11 10 2 6 2 3 4 5 9 19 20 11 5 12 9 18 15 10 9 10 13 18 20 24 25 25 27 28
7 10 8 8 4 4 3 5 5 6 4 7 6 3 10 12 16 23 24 21 16 6 4 5 4 5 13 14 11 11 11 14 22 20 7 8 6 11 13 17 23 23 23 25 25

GFSSW_850_spd_105.txt.gz
Wind_Speed
17 19 18 18 18 17 18 18 20 21 21 22 22 21 20 22 21 22 24 15 10 7 11 9 8 10 9 6 14 4 2 3 4 5 4 9 5 20 14 13 13 17 20 22 12
19 20 19 19 18 18 18 19 19 21 21 20 20 20 20 22 23 22 10 11 9 5 4 6 5 5 6 4 6 6 4 8 6 4 4 8 9 23 8 12 11 24 20 18 12
23 21 20 21 19 19 19 19 20 20 19 18 18 18 19 20 21 3 5 8 7 1 5 6 5 2 4 4 6 4 7 5 5 16 18 6 15 22 12 15 14 23 23 27 21
25 23 21 22 21 19 20 19 19 18 18 17 19 19 18 16 4 1 1 4 5 4 6 5 3 3 2 4 6 5 11 11 8 19 20 11 22 18 23 20 24 28 30 24 29
25 23 20 22 21 19 20 20 19 18 18 16 18 19 17 10 14 12 11 6 4 6 6 4 4 3 3 3 7 5 7 19 24 28 28 28 21 23 27 37 37 32 31 31 25
26 22 21 22 21 19 19 20 19 18 17 17 18 17 13 6 7 8 8 6 2 6 6 5 3 5 7 3 1 9 14 16 14 18 17 13 21 19 16 29 33 30 25 28 30
26 23 23 23 22 21 18 19 18 17 17 17 17 16 17 26 12 11 10 6 7 8 8 6 8 7 3 7 6 10 10 15 13 5 6 12 22 14 19 24 25 29 30 31 31
26 23 24 25 22 20 19 18 17 18 16 15 14 15 13 8 11 18 17 12 6 8 10 12 14 10 4 5 9 7 5 6 4 8 6 0 17 8 16 22 28 32 36 39 44
25 24 24 23 22 20 18 17 16 18 17 13 11 9 14 8 8 3 7 9 6 4 6 6 7 8 7 2 4 4 8 10 7 6 4 3 15 10 26 29 31 33 33 37 42
25 25 23 22 19 15 17 15 13 12 9 7 10 6 13 2 7 3 3 2 5 8 8 3 4 3 3 3 4 3 5 7 9 5 14 17 17 27 33 28 31 33 36 37 42
23 25 23 22 15 13 10 9 6 4 10 11 5 7 2 5 7 7 5 10 9 3 3 2 2 5 8 8 7 5 9 17 17 14 14 14 20 20 31 32 29 27 32 37 41
24 24 22 17 12 9 6 2 1 3 9 16 26 29 32 20 11 20 17 4 6 6 2 2 5 10 6 5 7 9 12 14 17 10 10 19 24 23 20 21 33 34 33 35 38
28 23 21 14 11 11 7 5 2 8 3 9 8 9 5 8 9 3 2 4 4 2 4 6 4 2 5 5 5 7 6 7 11 17 13 15 21 19 17 20 26 38 31 25 20
26 23 19 14 12 15 10 7 2 6 3 4 4 3 5 3 1 3 12 2 1 5 3 4 3 2 6 5 4 16 5 10 13 9 15 1 22 18 19 22 19 29 5 15 19
26 22 18 18 10 16 9 9 4 1 3 4 5 4 9 6 3 3 13 2 3 5 2 5 5 6 7 8 8 18 8 8 8 13 16 20 13 23 15 19 18 1 10 14 17
24 19 19 20 15 15 11 6 7 3 6 3 5 5 2 7 4 10 9 8 3 2 2 3 4 2 4 4 5 9 8 14 10 9 14 21 10 26 9 14 9 7 14 14 17
21 20 20 18 14 15 11 10 3 4 4 2 3 2 4 5 4 5 5 5 3 7 4 6 3 4 2 4 4 2 3 3 3 6 14 11 10 18 14 9 10 10 11 16 22
25 22 19 17 14 15 16 3 4 3 4 3 2 3 4 5 3 6 3 5 3 2 4 4 6 1 5 2 6 11 6 4 7 5 6 5 5 4 13 16 21 20 19 21 22
24 22 18 15 15 17 10 3 3 2 3 2 2 3 2 1 1 4 2 2 2 3 2 4 4 13 13 13 4 3 5 8 9 13 8 5 10 1 17 15 19 24 27 27 30
23 19 16 15 14 15 3 2 3 3 4 2 1 2 2 2 1 3 2 3 3 4 4 4 13 8 12 3 7 12 6 1 4 3 4 4 6 9 14 17 16 16 18 24 24
25 10 12 15 16 6 3 4 3 6 4 2 2 1 2 2 2 1 3 5 3 3 3 2 4 6 6 7 7 2 5 7 4 3 2 1 4 4 8 12 15 15 23 24 28
15 3 15 18 4 3 3 4 5 4 3 2 2 1 2 2 3 4 6 6 6 1 4 3 2 6 11 18 16 11 8 6 3 4 4 1 3 5 8 13 17 21 24 24 28
9 8 10 9 3 1 2 4 5 3 2 2 2 3 2 2 2 5 5 5 8 3 4 3 2 5 10 5 7 3 2 11 3 2 3 3 3 7 10 13 18 19 21 24 28
9 3 4 5 2 4 5 3 4 5 3 3 0 2 0 3 5 4 3 4 5 6 17 6 4 8 9 12 9 9 14 19 11 3 5 4 3 11 13 14 17 22 22 24 28
4 3 7 3 2 4 4 2 4 3 3 2 2 3 3 3 3 5 6 3 6 8 2 5 7 11 17 19 18 13 11 14 5 5 4 5 6 8 12 13 16 18 21 23 28
7 5 5 5 13 6 3 5 5 2 4 3 3 4 3 5 6 5 6 3 5 3 4 2 4 6 18 15 2 14 19 17 11 12 10 12 8 8 13 16 23 23 23 25 27
10 14 13 7 4 4 4 6 7 5 4 6 5 1 4 11 20 26 24 16 13 5 4 4 3 3 5 14 11 10 10 14 11 16 9 5 6 7 12 16 21 22 22 21 22

GFSSW_850_spd_108.txt.gz
Wind_Speed
19 20 20 21 20 20 22 20 21 22 22 23 22 20 20 21 21 21 22 13 10 9 11 10 6 7 6 4 7 4 1 2 4 5 4 4 4 10 11 12 17 14 20 23 23
21 21 21 22 22 22 21 23 21 22 22 23 22 19 18 21 22 20 8 9 6 4 4 5 5 4 4 4 6 5 3 8 6 4 4 5 8 21 5 10 16 30 29 24 24
22 21 23 22 22 21 20 21 23 22 22 22 22 19 18 19 19 1 5 9 8 4 1 2 4 2 4 5 6 5 5 5 4 12 14 6 14 16 8 8 18 26 31 31 29
22 22 22 22 22 21 20 20 21 20 20 20 21 20 18 16 5 1 1 1 1 1 2 1 2 2 3 4 3 2 8 6 6 16 18 10 17 11 18 19 30 30 33 32 31
24 23 25 24 21 20 20 21 20 19 17 19 20 20 17 11 12 13 12 8 4 1 3 3 4 3 2 2 5 5 4 7 13 21 21 20 12 13 18 27 24 24 28 28 27
28 27 25 26 23 20 19 21 21 19 17 17 19 19 15 7 7 8 8 8 6 1 2 2 2 2 3 3 2 2 7 12 9 18 19 12 13 8 13 27 29 27 28 26 23
28 26 26 26 23 21 21 20 21 20 18 17 18 18 18 24 13 14 11 11 7 6 4 3 2 2 1 6 4 6 6 5 6 1 4 10 2 6 8 13 20 27 30 30 28
27 28 27 26 24 22 20 20 19 19 18 16 17 16 13 11 11 16 15 11 7 9 9 7 8 6 3 5 8 5 1 1 1 8 6 2 6 6 8 30 28 28 34 37 36
32 30 28 25 24 21 19 19 19 18 17 15 13 10 13 8 7 3 10 15 10 7 7 4 4 4 3 3 5 4 4 2 4 4 5 7 20 4 32 26 24 26 29 34 38
33 33 29 24 21 19 16 16 14 14 10 5 10 6 10 1 5 6 9 4 6 10 4 4 3 3 3 3 4 4 5 4 2 5 7 8 24 21 13 19 28 31 30 32 36
36 36 30 23 17 16 13 10 7 5 10 10 4 6 4 2 6 7 7 3 3 5 5 1 3 5 9 8 5 4 5 11 6 6 6 8 18 27 18 16 21 25 29 32 38
41 38 27 21 13 13 11 6 5 2 8 14 24 26 27 18 8 14 12 7 5 4 3 3 4 9 3 3 5 6 8 8 8 5 4 8 21 22 20 8 18 27 31 32 35
39 37 26 19 12 13 12 10 7 4 3 8 10 10 7 9 9 3 4 5 4 6 5 5 4 4 4 2 4 4 5 5 14 5 8 10 17 9 13 26 23 27 34 29 24
45 31 22 11 8 13 12 10 6 3 3 4 4 2 5 5 3 4 3 3 1 5 4 4 1 2 3 4 5 7 8 9 10 8 9 5 14 32 9 15 17 33 36 4 8
39 30 22 19 7 18 11 10 6 1 3 3 4 4 4 2 4 7 11 3 4 3 4 3 3 5 3 4 2 4 6 8 7 6 8 15 8 12 19 23 13 10 13 15 15
36 29 23 20 18 17 9 8 4 1 7 2 3 3 5 8 4 6 4 6 3 2 1 3 2 4 7 5 5 8 5 7 7 2 9 18 10 15 6 11 18 12 16 18 20
34 25 20 22 20 16 12 9 2 4 2 2 2 3 5 4 3 5 4 4 2 4 2 4 4 1 5 2 4 5 6 3 4 1 6 6 7 5 9 10 12 16 26 26 25
32 26 24 21 17 19 15 3 6 3 3 1 3 6 4 4 2 2 2 2 3 5 1 1 3 1 3 3 4 2 6 3 5 2 5 11 6 2 8 14 17 19 23 24 30
28 24 22 20 18 21 16 2 4 2 4 5 3 4 3 1 2 2 1 2 4 4 2 3 4 5 13 12 6 1 5 7 6 10 6 4 3 7 9 13 20 20 21 25 31
30 24 20 22 20 21 3 4 3 2 4 2 3 3 4 3 1 2 2 4 2 2 7 2 6 8 9 3 6 8 3 2 2 3 5 5 2 4 12 17 16 16 21 28 34
30 14 19 19 19 13 3 5 3 4 4 2 2 3 3 4 3 3 3 2 3 2 3 1 3 5 3 6 5 2 3 5 4 4 3 2 1 5 9 12 13 14 22 24 30
18 4 22 23 5 3 3 5 5 5 4 3 3 3 4 4 4 4 5 5 7 4 1 2 2 5 7 10 12 7 4 3 1 2 4 2 2 6 8 10 16 20 24 24 28
11 11 16 19 4 3 2 3 3 3 2 2 3 2 2 4 2 5 2 4 3 3 3 3 0 4 7 4 0 3 1 3 5 6 5 3 1 7 11 12 18 20 22 25 29
11 4 4 8 2 4 5 4 4 5 3 3 3 3 3 3 3 2 3 2 2 5 8 2 5 7 6 9 9 8 12 12 14 4 3 2 4 10 11 13 18 22 21 24 27
6 5 10 5 3 4 3 3 5 4 3 3 1 3 4 2 3 4 2 3 4 4 2 7 6 8 15 17 13 5 6 14 5 4 3 6 6 8 8 11 16 18 21 25 28
8 7 6 5 15 7 3 6 5 4 5 3 3 5 5 5 5 4 2 3 6 3 5 3 2 1 13 12 4 4 10 8 11 9 10 12 7 6 9 11 17 22 24 24 25
9 16 12 3 4 5 5 6 5 7 2 4 5 3 4 10 15 19 18 12 7 3 3 3 3 2 2 18 8 5 6 9 9 15 5 4 5 5 8 14 19 21 22 23 26

GFSSW_850_spd_111.txt.gz
Wind_Speed
17 18 18 20 21 22 23 22 21 21 20 22 23 20 21 22 20 20 21 11 9 9 11 9 7 5 5 6 6 5 2 4 7 7 4 1 3 5 6 9 9 7 11 21 24
17 19 20 20 23 23 24 23 22 22 22 22 22 21 19 20 22 18 6 8 5 4 7 9 8 6 6 7 7 5 3 9 5 5 3 4 5 10 8 20 22 25 23 24 23
15 17 20 20 22 23 23 22 22 22 23 23 23 20 20 19 17 1 3 7 8 6 4 5 6 5 4 6 7 6 5 6 5 10 7 12 17 15 16 15 16 23 30 25 22
18 19 22 21 21 21 22 21 21 21 22 23 23 21 19 15 5 0 1 3 4 2 3 3 5 5 4 4 5 4 8 6 3 5 4 6 8 12 17 22 22 21 26 23 24
20 21 25 24 21 21 21 21 21 20 20 20 23 22 17 11 9 13 10 7 6 4 3 3 5 5 3 3 1 4 4 5 6 16 11 14 16 15 15 24 23 18 15 18 18
23 23 24 24 22 19 21 20 20 20 19 18 19 22 16 8 7 9 8 8 9 6 3 3 4 6 3 3 3 3 5 11 10 14 15 12 12 5 9 6 7 12 19 21 22
24 25 22 22 24 21 20 20 17 18 18 18 18 19 21 22 15 16 12 10 10 7 4 3 2 4 3 2 2 3 6 8 10 0 2 7 7 6 3 12 21 23 25 25 25
26 30 25 23 24 23 22 19 17 17 17 17 19 18 14 15 14 13 12 13 11 9 8 6 6 5 3 2 3 3 1 4 1 8 3 3 9 8 5 19 21 22 22 28 29
29 28 29 27 25 22 23 17 16 17 16 14 14 11 12 8 6 4 10 16 9 8 8 5 5 3 3 1 3 1 4 3 5 5 5 5 11 12 17 16 17 23 25 24 28
30 35 28 28 26 23 17 14 14 14 10 8 12 6 10 5 5 4 7 9 8 10 5 5 3 2 2 3 6 4 5 3 6 4 14 17 24 11 11 17 22 22 21 25 33
29 27 31 28 31 22 12 10 7 6 10 10 4 5 4 4 8 9 11 7 7 8 6 1 3 8 11 11 3 3 5 10 9 12 10 11 27 22 15 18 19 20 25 28 30
31 33 33 31 28 19 10 4 3 4 10 15 24 25 21 8 2 12 11 3 6 7 5 2 9 10 4 4 5 5 7 8 8 4 9 16 30 27 13 8 18 23 24 31 35
31 30 31 33 24 18 9 5 4 5 6 11 15 12 10 14 9 9 10 9 5 7 9 8 2 5 6 3 4 4 5 6 11 8 11 16 22 6 10 13 11 15 17 19 20
33 30 35 34 18 14 6 5 4 3 2 5 5 5 9 8 3 3 4 6 2 9 7 5 1 4 5 4 5 7 10 10 7 7 7 4 12 21 2 11 14 17 20 21 22
37 31 38 31 13 16 12 9 7 3 3 3 2 3 5 4 8 4 7 3 4 4 4 2 6 3 4 4 4 5 5 8 9 9 10 12 6 13 18 7 12 14 20 22 24
39 36 37 28 19 13 13 14 7 2 8 2 2 0 4 6 3 3 3 6 3 2 3 0 2 3 3 2 2 3 5 7 8 5 7 6 9 11 5 5 8 14 19 21 24
41 37 34 25 23 22 17 17 3 5 2 2 2 2 5 2 3 3 3 3 2 2 2 2 3 1 1 3 3 3 4 3 4 5 6 2 8 6 3 7 8 12 18 22 26
41 36 26 22 20 24 24 2 7 5 4 2 4 4 4 1 2 3 2 3 3 4 2 3 3 5 1 2 1 3 3 4 6 3 4 12 8 2 5 8 13 16 18 22 26
40 28 27 23 25 25 19 5 6 4 4 9 3 3 2 1 4 2 1 4 5 5 4 4 5 3 6 2 4 3 7 6 12 13 9 7 2 5 7 11 16 20 23 26 29
41 29 30 31 27 24 2 8 4 2 3 2 5 3 6 5 4 3 4 4 4 4 3 1 4 7 6 3 7 13 1 3 4 3 5 5 9 3 13 16 16 17 23 25 28
40 14 24 24 26 19 5 5 3 5 4 3 4 3 4 4 5 5 3 1 2 4 3 3 4 2 4 6 4 3 4 6 4 6 4 4 1 6 8 10 13 16 21 25 27
19 4 33 29 9 5 5 6 6 6 4 2 3 4 5 7 6 5 5 2 5 6 3 2 2 4 8 8 7 8 4 3 2 2 3 5 3 8 8 9 14 17 20 22 24
11 10 29 31 5 6 3 3 3 4 4 4 3 3 2 5 3 5 2 2 5 5 4 5 2 4 2 4 2 3 4 4 6 7 12 5 2 7 10 11 15 18 22 24 25
13 5 7 18 8 12 6 5 5 4 3 4 4 4 4 3 1 2 4 1 1 6 8 4 4 5 6 6 5 5 7 11 8 6 8 2 4 8 11 13 17 21 22 23 25
10 6 15 12 7 5 4 6 7 5 3 5 2 4 5 4 4 4 4 2 3 3 4 6 5 9 14 16 12 8 4 3 7 16 7 6 5 7 9 10 16 18 22 25 28
11 9 14 20 13 7 6 7 9 5 6 4 4 9 6 5 6 7 6 4 4 3 6 5 3 1 5 11 6 7 7 2 8 7 10 12 8 5 8 11 17 20 22 25 27
16 24 21 16 7 7 7 8 7 8 1 9 9 6 7 11 12 13 11 7 5 4 5 3 2 1 4 14 10 4 5 4 3 11 2 2 6 5 8 14 17 19 20 22 23

GFSSW_850_spd_114.txt.gz
Wind_Speed
12 13 14 16 18 19 19 19 20 21 21 21 22 22 23 24 21 21 17 9 10 8 11 9 7 7 6 7 6 6 7 12 14 12 12 6 9 7 5 11 10 8 11 16 19
14 13 14 16 18 21 21 20 20 18 20 22 21 21 22 23 22 14 7 8 6 5 9 10 9 9 7 7 6 11 11 12 7 11 12 11 14 14 11 15 16 19 16 15 16
17 14 15 16 18 22 22 20 19 18 19 20 21 21 20 21 15 1 3 6 6 6 6 6 8 7 8 7 10 6 13 10 10 14 12 14 17 19 19 17 18 17 20 17 15
17 15 18 17 18 20 22 21 17 17 20 20 20 20 19 15 6 4 1 2 4 5 5 5 7 8 7 10 9 10 13 13 11 10 13 15 17 19 18 22 19 17 18 15 13
19 19 19 18 21 18 20 20 18 18 19 18 19 19 18 8 9 14 12 7 6 6 6 7 9 7 9 5 7 13 11 11 14 14 15 17 18 20 23 21 18 9 8 10 11
21 21 20 19 20 19 18 18 18 19 17 17 18 17 12 12 9 8 8 8 10 7 7 7 7 7 6 6 9 2 7 12 13 17 18 18 19 16 10 4 5 4 7 11 13
23 23 20 20 20 18 18 18 19 19 17 17 18 17 17 18 15 17 14 10 9 8 7 5 5 6 2 5 6 8 12 13 15 13 8 7 12 12 11 6 8 11 13 14 15
26 22 23 23 23 22 18 17 19 21 18 16 16 14 12 17 15 14 10 10 13 12 8 5 5 6 7 3 5 9 7 10 6 4 5 5 13 4 8 8 15 20 20 19 18
26 27 24 25 24 20 18 18 20 20 16 15 13 7 11 9 6 5 9 9 10 7 7 6 6 8 6 10 10 7 13 8 7 3 6 6 11 4 11 17 21 20 24 22 17
25 25 26 26 25 22 18 15 17 16 14 10 9 6 10 3 2 3 6 9 10 7 6 9 8 10 8 10 12 12 9 10 11 5 13 19 21 17 10 19 21 23 25 18 20
28 23 22 28 22 21 16 10 4 4 5 8 4 5 4 3 6 6 7 8 9 12 13 11 10 14 14 11 12 11 13 16 14 12 15 17 19 18 22 22 24 23 18 17 17
29 25 24 23 23 18 15 6 7 4 10 16 19 22 19 11 5 11 12 10 12 14 12 8 16 14 8 10 12 13 15 16 12 6 12 20 29 21 20 11 8 13 11 13 16
29 25 26 22 20 19 14 10 7 3 6 9 16 13 12 15 13 14 13 13 11 15 15 18 9 1 9 11 12 13 14 13 14 15 17 21 27 8 12 2 2 4 11 14 17
25 27 27 28 19 17 12 11 8 6 2 5 5 4 7 7 7 6 9 14 11 15 17 13 14 11 12 13 10 15 9 10 11 11 12 9 15 19 12 8 2 9 14 18 21
28 29 25 24 16 18 13 14 10 8 4 5 5 7 8 9 12 4 5 8 10 8 7 4 7 9 12 12 7 11 5 10 12 15 16 19 10 17 12 7 7 10 16 19 21
26 30 24 32 23 14 18 18 13 2 8 6 7 9 10 6 5 4 5 3 1 5 7 9 2 6 9 4 8 8 12 16 14 12 12 21 16 16 4 4 5 11 16 20 23
28 28 34 30 26 21 29 21 5 8 5 7 7 9 13 7 6 5 8 8 7 7 12 9 13 4 6 9 7 10 8 6 8 8 10 3 6 14 10 3 5 10 14 17 21
26 30 39 29 23 34 30 4 9 3 6 3 5 8 10 7 4 4 4 8 5 8 8 9 8 10 6 10 5 8 7 7 10 9 10 8 8 0 6 7 9 11 16 19 22
35 41 33 24 32 33 25 4 5 9 9 10 9 10 7 5 3 6 6 8 4 8 7 4 6 4 4 4 3 5 9 11 16 16 13 11 10 6 5 8 15 19 20 22 24
41 37 27 32 33 30 5 7 8 4 5 12 15 10 10 10 9 7 8 6 6 6 2 1 5 7 5 7 12 13 2 4 8 5 8 7 11 3 9 13 14 16 20 24 26
38 17 30 35 35 17 5 8 7 7 7 8 9 6 7 7 9 7 3 5 4 8 6 4 4 3 3 8 10 7 11 10 7 8 4 5 2 6 8 9 13 16 20 22 25
29 4 39 39 9 6 9 9 9 13 9 3 3 3 8 9 7 7 6 3 8 10 5 5 4 7 9 4 9 12 10 12 9 6 6 6 6 7 7 8 13 16 20 21 23
14 9 34 33 6 11 9 10 11 12 12 8 7 4 3 8 6 8 3 3 9 9 6 7 6 4 6 4 7 4 9 10 7 8 14 9 1 6 8 10 13 16 20 23 24
12 6 8 20 10 16 15 18 13 9 9 6 5 6 8 7 6 5 8 6 6 7 4 5 6 9 8 7 3 5 6 9 10 7 12 9 5 6 9 9 14 18 19 21 22
10 7 18 12 15 15 18 18 16 10 6 9 4 9 10 7 9 7 9 5 5 7 7 3 7 9 14 16 13 12 12 11 7 9 9 3 6 6 5 7 12 14 18 20 23
13 9 26 22 26 17 20 17 20 8 9 9 9 13 11 8 9 9 10 7 5 9 10 7 7 2 10 14 15 5 4 8 4 3 5 12 8 4 5 7 12 16 19 21 23
13 19 25 22 20 17 18 17 15 11 6 8 13 9 11 10 6 3 8 4 3 6 10 5 6 3 2 1 9 6 2 3 4 5 2 3 7 7 7 11 14 16 18 20 22

GFSSW_850_spd_117.txt.gz
Wind_Speed
12 12 12 12 12 15 15 17 19 19 18 18 20 21 22 22 20 15 14 11 11 9 8 5 5 6 8 12 11 10 12 14 17 16 15 12 5 13 6 11 14 9 12 14 19
13 14 14 13 14 14 17 16 17 18 18 17 20 19 21 23 22 13 8 8 8 5 4 7 7 8 13 10 9 12 12 20 14 15 12 15 15 15 15 15 15 15 16 13 15
16 15 14 15 14 16 17 18 16 17 18 19 19 18 19 20 16 2 3 5 5 6 2 7 8 9 14 13 14 14 16 20 18 11 16 18 18 18 18 17 19 17 15 16 14
18 18 16 16 17 16 18 17 16 17 17 19 18 19 20 13 7 5 4 2 1 2 3 4 7 11 12 14 15 17 19 18 21 17 15 14 18 18 21 21 21 17 16 14 14
22 21 19 18 19 17 18 17 17 17 17 19 17 17 19 9 11 15 14 9 6 4 7 8 10 12 15 13 12 14 17 21 17 18 18 18 19 20 24 24 21 19 12 11 11
23 23 22 21 20 19 16 17 19 18 17 19 19 15 9 10 7 12 5 6 7 7 8 9 11 11 14 18 16 18 15 18 18 19 19 19 21 23 24 14 11 10 10 9 10
20 21 23 24 22 22 19 16 18 18 19 20 19 16 11 15 7 8 9 8 9 10 10 8 8 10 7 12 11 13 18 18 20 20 16 7 16 23 21 15 11 11 12 10 13
23 23 25 22 24 23 19 18 17 18 20 19 16 9 10 11 10 12 11 11 11 11 11 7 8 11 14 14 14 18 19 18 16 4 10 7 15 17 5 9 13 13 16 17 17
26 20 23 22 24 21 20 17 17 17 18 17 10 7 11 6 3 3 8 12 11 11 11 10 11 16 13 11 15 16 17 19 14 14 7 11 15 10 8 13 17 21 22 20 18
23 21 20 20 20 20 19 17 16 16 12 7 8 8 8 3 4 5 6 10 10 12 12 14 12 13 13 12 15 18 17 16 12 11 13 16 21 19 24 25 17 23 22 19 18
28 22 22 19 17 15 15 11 5 5 11 12 10 15 10 5 4 5 6 8 13 16 16 17 14 15 17 17 17 16 18 21 21 17 20 19 22 21 21 27 27 25 24 18 7
24 23 23 21 15 14 13 7 7 6 12 19 23 23 21 11 9 12 10 11 16 16 18 15 17 17 18 14 13 16 20 22 22 20 11 19 24 23 24 29 26 13 5 7 11
19 25 23 21 16 19 15 11 9 5 9 18 23 22 18 18 17 18 17 18 17 16 18 20 16 7 7 15 15 17 19 20 21 19 21 22 30 23 15 5 9 6 3 6 11
18 21 22 18 19 19 16 10 6 1 5 13 8 7 11 10 9 21 16 18 15 18 16 18 18 16 19 16 15 20 14 17 14 15 17 20 21 26 22 24 12 8 5 9 14
21 25 21 20 19 19 10 12 8 3 6 6 8 8 9 14 8 9 11 16 20 18 11 17 11 11 15 17 14 16 12 10 16 18 20 30 14 26 19 13 14 6 9 13 16
24 24 22 25 26 16 12 16 14 3 11 7 8 9 12 15 8 7 10 10 7 13 14 16 3 8 12 11 8 12 11 16 18 17 17 25 21 22 5 9 7 7 11 15 20
24 24 24 26 30 21 19 22 3 7 3 8 7 11 14 8 10 10 11 13 9 10 14 18 17 13 5 14 12 11 13 11 13 12 16 20 12 8 9 10 11 13 19 21 21
24 25 27 31 30 28 29 3 8 11 22 2 3 10 15 9 10 10 9 13 10 10 9 10 12 15 11 14 15 15 14 12 19 15 17 21 9 4 11 11 12 12 14 17 21
29 42 37 35 30 33 23 5 8 16 15 8 9 12 13 8 5 11 15 14 12 12 8 8 12 3 3 8 6 7 14 12 17 18 16 17 20 12 9 11 14 15 16 19 21
44 38 32 33 37 41 3 8 13 10 6 14 17 15 15 16 11 9 10 5 8 5 3 4 8 11 8 6 14 14 10 6 7 6 12 11 14 3 9 11 13 14 17 20 22
32 15 25 46 42 15 5 12 14 11 13 12 16 14 14 11 14 14 6 6 5 9 7 7 7 6 4 10 15 12 12 13 13 11 9 10 2 4 6 8 11 15 20 20 22
26 4 40 47 9 5 12 11 11 13 14 8 8 12 10 10 11 12 10 6 9 6 6 9 5 11 16 11 9 14 16 15 11 13 7 13 7 5 5 6 11 15 17 18 21
18 9 40 32 7 14 13 17 11 14 17 12 10 9 7 10 8 10 4 5 6 10 6 6 7 7 8 7 10 9 14 14 9 9 15 9 2 5 6 9 12 14 16 19 22
13 5 9 17 13 14 20 16 17 19 14 13 10 9 10 8 9 5 8 6 9 13 3 2 8 9 11 10 5 5 7 9 12 11 14 12 2 5 7 8 11 14 16 18 21
12 7 18 11 13 13 17 15 21 12 15 17 10 16 13 11 13 11 9 8 7 10 7 8 10 10 15 16 15 13 12 12 11 15 10 7 2 4 6 7 10 12 15 19 22
16 9 24 14 28 19 19 16 23 19 17 20 12 14 12 14 11 7 13 11 8 12 13 12 7 7 11 16 15 15 15 13 9 8 5 2 4 5 7 7 10 13 16 19 21
31 25 27 19 22 17 19 20 23 17 15 18 14 12 13 12 7 4 8 14 6 9 13 10 5 6 7 3 4 7 9 8 3 3 5 9 8 8 7 9 11 12 15 17 19

GFSSW_850_spd_120.txt.gz
Wind_Speed
13 13 13 13 12 13 13 14 15 16 17 18 19 22 21 23 20 13 10 7 14 18 11 2 7 8 9 14 15 12 8 12 17 17 11 20 12 6 9 6 14 13 14 16 21
16 15 14 14 13 13 14 15 15 16 16 17 19 19 20 23 18 8 5 5 7 5 1 2 8 8 11 12 15 10 10 16 14 14 13 15 15 15 17 18 18 17 15 13 11
18 17 16 16 14 13 14 15 16 17 17 16 16 18 20 22 10 3 3 4 8 7 4 7 10 12 14 14 17 16 15 16 19 22 16 14 17 17 17 14 16 19 18 18 16
21 20 19 18 18 17 14 14 16 16 16 17 18 19 19 11 6 4 10 13 8 2 2 5 7 11 14 14 16 16 21 22 20 18 16 15 17 19 19 19 20 21 20 12 11
23 24 22 20 20 19 17 14 15 16 16 16 18 21 19 8 15 11 10 12 7 3 5 7 10 13 14 15 18 14 16 19 21 22 15 18 18 18 24 25 20 23 21 9 11
26 27 25 22 22 21 19 16 15 17 16 17 18 19 13 7 6 8 5 6 4 7 6 9 10 12 15 18 16 22 24 21 21 22 24 19 19 21 26 25 24 11 12 11 8
26 29 23 21 23 22 21 18 15 16 16 16 17 17 12 17 7 9 10 9 8 8 10 9 10 9 11 13 13 14 17 18 21 25 22 23 15 15 31 22 16 9 12 12 10
24 22 22 21 22 23 21 21 15 14 14 16 17 12 10 11 12 12 13 13 10 10 11 11 8 12 16 17 21 19 19 19 19 18 4 5 14 17 3 2 8 11 15 11 13
26 21 21 20 20 21 20 19 14 15 14 16 12 6 11 8 8 4 8 12 10 9 10 10 9 15 16 14 14 15 17 20 19 9 6 10 13 15 20 10 12 16 17 20 18
31 27 22 19 14 17 14 15 13 14 12 9 9 8 10 2 3 5 8 9 11 9 10 12 9 12 12 11 14 17 18 20 19 11 9 16 17 17 20 21 22 24 18 17 20
26 25 28 20 16 12 11 10 5 4 9 12 6 12 18 17 6 7 8 7 11 13 13 16 11 14 17 17 20 20 21 21 19 19 19 20 21 21 19 23 24 23 26 26 19
19 21 23 20 17 13 11 6 4 5 10 18 26 28 26 21 18 16 12 9 14 15 16 15 17 19 17 17 19 21 19 20 21 21 19 21 20 20 18 22 31 32 16 16 12
16 15 17 19 19 19 14 12 6 5 9 19 30 34 22 20 28 25 20 17 16 16 16 19 15 16 11 12 15 20 18 19 22 21 20 18 23 20 23 26 22 11 15 16 14
16 15 17 18 19 21 17 10 4 1 6 15 13 4 15 11 11 20 23 20 15 18 18 17 18 18 20 20 17 20 17 21 22 16 15 18 17 20 22 21 21 23 19 14 15
17 18 17 17 21 18 13 12 10 4 5 2 7 8 9 15 1 4 17 13 17 18 15 15 12 14 16 15 16 21 15 14 16 15 16 28 13 17 21 18 13 15 14 15 18
22 20 16 21 22 12 11 18 12 4 9 7 9 9 11 18 10 7 8 10 10 16 19 23 23 14 12 12 13 10 11 15 15 14 14 23 17 17 4 10 12 11 14 14 15
22 22 22 25 27 17 17 24 3 6 4 10 8 12 14 12 15 9 11 12 9 7 12 16 19 17 17 12 13 13 9 8 8 10 14 19 16 13 14 11 12 11 13 14 15
20 20 26 25 26 24 31 3 6 14 22 2 3 11 14 13 12 11 12 13 16 15 12 10 11 8 5 13 11 15 12 8 16 14 17 20 14 6 14 17 15 13 12 15 20
19 28 34 32 28 29 21 3 10 15 17 16 9 11 14 16 7 12 13 15 14 12 13 8 13 5 5 2 4 7 11 14 17 14 13 12 19 11 14 13 15 16 19 23 24
25 36 36 34 30 40 7 7 16 20 7 14 18 12 13 16 12 8 11 7 15 4 4 3 12 12 16 15 9 11 11 10 5 8 13 9 5 3 8 11 12 14 16 16 18
32 19 16 30 37 18 6 13 16 23 18 12 15 16 14 15 15 14 9 4 3 4 4 5 9 12 14 12 14 11 12 11 11 10 10 13 3 3 4 6 8 11 14 17 21
25 4 18 32 6 2 10 17 22 19 26 13 10 13 16 17 15 12 13 7 10 3 6 5 4 10 17 15 15 16 15 15 9 10 11 10 5 6 3 4 9 11 14 18 21
18 8 28 37 7 6 11 21 22 17 15 13 15 12 14 11 10 12 12 10 7 4 3 3 4 6 6 11 13 14 13 14 10 8 16 10 2 5 2 6 9 11 16 18 20
16 4 8 17 7 12 14 19 24 20 18 17 13 13 11 10 8 5 11 6 6 6 4 3 5 7 10 6 9 6 11 11 12 9 12 9 3 4 2 5 8 13 15 16 18
17 7 15 9 15 13 8 10 19 20 19 18 15 15 13 9 14 12 11 8 5 6 4 4 7 7 11 17 17 16 15 13 9 12 9 5 6 5 4 5 9 11 13 15 19
16 10 22 8 27 18 10 14 22 21 15 18 16 14 13 15 13 7 12 10 6 9 11 9 7 4 10 17 17 17 16 17 12 8 10 5 5 8 9 8 9 11 12 14 17
32 33 23 14 18 14 19 14 19 16 17 21 16 10 16 11 8 12 3 8 9 12 11 9 5 2 6 10 4 10 8 11 8 7 8 10 4 12 9 8 9 9 10 12 15

GFSSW_850_spd_123.txt.gz
Wind_Speed
13 13 12 12 12 12 12 13 15 16 17 17 19 19 21 23 20 6 6 7 9 14 8 2 4 4 6 9 11 16 1 3 7 5 6 19 9 16 15 15 9 6 6 12 10
15 15 15 14 13 13 13 14 16 17 17 16 17 18 20 24 12 5 7 6 9 4 6 4 7 7 8 11 11 4 2 6 9 6 5 15 13 16 10 17 15 15 14 13 13
18 17 17 17 16 15 15 16 16 18 18 16 16 17 19 19 7 2 4 8 11 4 4 3 4 3 4 10 17 9 6 8 20 27 21 9 14 16 12 5 10 15 19 19 16
21 20 19 18 19 17 16 16 16 16 16 16 17 18 18 12 4 8 13 13 13 9 4 2 5 7 3 4 16 5 18 19 22 24 19 8 11 12 13 17 21 20 18 18 10
23 22 21 21 20 20 19 17 16 17 15 17 18 19 20 12 9 12 12 15 10 5 3 8 8 11 5 5 14 6 6 18 25 18 17 15 10 10 16 24 24 24 17 18 8
23 20 21 24 23 22 21 18 17 17 18 18 17 17 16 6 6 10 13 11 3 3 11 9 7 10 13 7 5 11 19 19 24 21 22 15 14 15 15 27 27 20 21 10 4
15 16 19 20 19 22 24 19 19 17 17 16 17 19 18 18 10 8 12 12 9 10 13 12 12 8 9 8 11 15 10 10 15 22 13 23 10 9 21 24 30 18 9 7 8
26 24 23 19 17 19 22 20 19 16 16 16 16 18 13 17 14 10 12 16 11 12 11 13 10 8 8 10 11 7 6 4 12 16 27 13 7 3 20 5 3 10 6 10 3
33 30 29 19 16 15 16 19 15 13 15 15 14 8 15 7 9 2 5 8 5 10 9 9 9 5 8 5 5 6 5 9 11 13 4 4 4 9 15 11 12 13 13 15 10
27 27 27 23 18 14 14 13 11 11 12 11 7 6 11 4 4 7 7 8 11 9 9 10 6 3 2 3 4 5 7 9 9 5 6 5 8 7 18 21 17 10 15 24 17
24 25 25 22 17 14 14 9 8 3 10 13 5 14 11 12 11 14 6 9 9 11 6 10 3 7 11 12 13 13 11 10 8 8 13 10 15 7 12 16 15 17 11 22 21
20 19 19 18 18 16 15 8 6 2 9 18 25 32 34 24 19 18 8 10 11 7 8 6 10 15 14 14 13 8 8 10 11 8 8 11 15 9 6 11 19 16 19 23 22
18 17 17 18 16 18 17 9 4 3 5 14 32 27 28 27 26 25 20 19 9 6 8 11 10 11 13 12 15 7 6 8 14 6 5 8 11 9 9 15 23 28 25 26 25
15 15 15 16 19 19 19 9 7 1 3 7 10 7 23 23 8 18 25 21 7 11 11 11 15 15 10 9 9 5 6 11 10 7 5 5 7 12 15 5 15 20 25 25 24
16 17 15 17 13 22 15 13 12 6 3 4 4 8 11 16 3 3 9 19 10 10 7 8 5 5 6 5 5 4 6 5 5 7 6 19 1 10 13 9 10 16 22 25 24
16 17 15 19 19 16 11 16 13 2 8 4 6 6 6 9 3 5 3 4 5 3 9 13 19 9 8 3 2 6 4 7 6 1 6 18 7 3 3 4 9 16 21 23 24
16 15 19 20 21 15 21 22 3 5 6 6 6 8 10 8 7 5 5 4 4 3 5 8 14 13 15 5 3 2 3 3 4 1 8 8 8 3 10 12 12 12 18 21 23
17 15 18 23 21 22 30 4 6 9 14 8 6 12 10 6 9 10 7 6 10 9 4 3 7 5 6 7 8 6 5 3 4 3 9 11 4 6 12 16 16 18 19 20 24
12 17 26 26 24 25 21 5 9 9 6 12 13 6 8 11 6 8 10 7 7 14 8 4 5 4 7 4 4 1 2 1 2 9 9 4 6 6 9 11 13 14 15 18 23
15 23 29 27 26 35 9 12 9 11 15 10 5 9 6 10 8 6 6 6 14 3 6 1 3 3 2 2 3 6 3 3 3 4 7 4 2 3 4 7 9 12 14 15 20
17 12 17 29 31 14 4 9 9 20 18 9 10 9 10 8 11 8 8 1 3 4 7 3 4 3 5 1 4 3 2 4 6 4 3 2 5 4 3 2 5 9 12 16 21
20 5 13 26 6 2 8 6 13 16 20 12 5 3 5 5 4 3 10 2 9 9 6 2 2 2 5 9 13 6 6 6 4 6 5 6 5 4 5 2 8 7 9 11 15
17 9 13 32 8 5 6 11 10 7 14 2 8 5 3 4 3 4 7 5 12 5 5 2 1 2 7 5 4 3 3 6 3 2 9 4 4 6 6 6 6 5 8 9 12
15 4 7 13 7 9 10 15 15 16 18 8 8 10 3 5 4 2 6 1 5 8 8 6 2 6 6 3 5 6 10 6 3 3 3 6 5 8 6 3 1 5 6 9 14
21 6 12 6 13 10 11 8 18 13 21 17 14 8 6 5 1 4 6 5 5 8 4 4 3 1 4 8 11 12 12 12 7 9 4 5 4 8 7 7 4 5 6 11 16
19 7 15 8 17 14 7 11 15 18 8 12 8 8 8 6 6 3 6 4 5 5 4 1 2 3 5 11 14 17 14 13 10 9 2 6 3 9 15 11 7 6 8 11 14
23 34 23 12 11 13 18 18 13 8 11 16 10 7 6 6 5 10 8 4 11 8 6 5 4 2 5 7 6 8 13 12 8 6 4 6 5 15 12 10 7 7 8 10 10

GFSSW_850_spd_126.txt.gz
Wind_Speed
11 11 10 11 11 11 12 12 14 16 18 18 16 17 20 22 14 9 10 12 15 11 5 4 5 5 1 1 3 3 2 2 4 1 4 12 6 10 10 12 8 8 11 8 5
13 13 13 12 12 12 13 13 15 16 17 18 16 15 18 21 13 6 9 9 13 10 5 2 4 7 4 3 2 4 4 7 6 4 6 11 7 5 5 15 10 19 13 17 2
17 16 16 15 14 14 13 14 15 15 16 17 17 16 17 19 11 4 9 13 12 7 4 4 5 6 3 3 3 3 5 6 15 23 15 6 10 7 4 0 7 14 21 20 15
20 19 19 18 17 16 16 15 15 16 16 18 19 19 17 14 2 7 12 11 14 10 5 3 8 5 2 3 2 4 8 6 9 10 9 6 8 7 6 13 18 18 19 19 17
23 22 21 19 18 19 18 18 17 16 17 18 19 19 19 10 7 11 13 14 10 4 2 6 8 6 3 7 11 5 3 14 15 14 17 12 9 10 15 20 20 20 19 13 9
25 25 22 19 16 17 17 18 20 20 17 18 19 18 17 7 8 10 14 13 6 4 2 8 8 16 10 5 1 8 16 15 17 24 17 8 9 6 19 25 23 24 18 14 8
19 21 16 12 13 14 10 13 14 18 20 18 17 19 19 16 9 14 13 10 13 9 12 8 11 9 8 7 9 12 6 8 17 12 9 8 4 8 28 27 13 11 3 5 5
18 19 20 17 15 15 20 19 18 16 16 17 17 18 14 15 12 12 12 6 9 9 14 12 10 11 6 8 10 6 3 1 6 1 9 7 6 9 14 8 4 2 10 8 19
27 26 21 22 23 19 22 15 15 15 15 16 14 11 14 9 7 4 6 8 6 4 7 6 7 4 5 2 4 3 3 4 7 5 2 3 3 6 14 4 6 8 12 19 20
25 26 29 25 22 19 17 14 13 13 14 14 13 6 14 10 5 6 7 5 6 7 7 8 3 1 2 3 4 4 3 3 5 6 3 2 3 6 12 13 10 9 15 20 21
21 23 23 22 20 20 15 10 7 9 16 17 5 8 5 7 4 8 7 9 10 6 5 4 3 8 10 9 7 6 9 9 6 6 6 7 2 2 6 18 22 22 24 23 19
17 19 19 18 20 18 14 12 8 5 11 19 26 32 28 23 16 22 11 8 10 6 4 2 6 13 9 10 8 10 13 11 5 4 5 5 11 4 10 12 22 22 23 19 16
15 16 15 16 17 19 20 17 8 3 6 15 32 28 34 28 26 31 21 18 7 7 6 8 8 5 9 11 12 12 10 5 3 4 4 4 9 1 11 21 24 23 19 19 20
12 14 14 14 16 21 21 17 8 2 3 7 7 10 17 13 7 18 22 20 7 13 4 7 14 16 15 10 7 4 3 0 3 5 3 4 6 6 9 12 14 16 20 20 23
11 13 16 17 11 23 21 16 10 5 3 4 6 6 7 13 6 2 17 22 14 6 6 8 3 1 3 5 2 3 1 3 2 2 4 2 2 6 9 7 8 12 14 18 21
12 16 19 18 18 10 18 22 15 4 9 4 4 6 7 6 4 7 5 5 6 4 4 9 6 4 6 4 4 4 4 6 3 3 4 4 6 5 4 2 5 9 14 16 22
15 16 18 19 18 19 19 21 4 5 4 6 4 6 4 5 4 4 5 4 5 4 3 4 6 10 8 5 4 3 5 3 4 1 6 3 3 1 5 7 8 8 11 15 22
18 18 19 19 19 22 26 3 7 8 8 4 5 5 7 6 6 8 6 5 5 3 2 3 5 2 2 3 7 5 8 5 6 3 4 7 5 3 6 9 10 9 10 16 23
17 20 24 22 24 27 24 5 8 6 5 4 2 4 5 6 6 5 9 8 8 9 8 5 4 1 4 2 4 1 1 4 1 0 3 4 2 4 6 4 6 8 9 16 23
18 18 24 25 22 32 6 10 6 5 5 4 2 7 10 7 7 9 9 6 6 9 10 4 2 3 1 4 3 5 4 1 2 4 8 4 4 4 5 1 3 6 11 15 19
18 11 15 24 22 17 6 6 10 13 9 1 1 4 3 5 7 6 9 2 6 4 9 4 4 3 2 3 4 2 1 1 3 4 4 3 5 4 7 4 3 5 8 12 17
16 4 15 29 9 4 6 8 9 9 9 7 3 4 5 3 6 7 9 1 10 13 8 2 4 2 6 5 4 3 4 5 5 6 4 6 9 2 6 7 7 5 6 8 12
9 10 19 28 7 7 4 13 5 3 12 4 4 6 6 3 3 2 4 5 7 4 8 6 1 2 7 5 3 4 0 2 3 2 7 6 6 5 7 8 7 5 3 5 9
12 3 7 13 16 16 10 11 13 12 12 6 3 5 3 4 3 2 2 4 5 5 8 7 4 6 7 4 3 3 5 5 3 2 3 6 4 10 10 9 8 3 1 3 7
14 6 11 8 10 16 11 6 15 12 14 7 6 9 6 3 5 3 2 2 6 5 4 5 5 3 3 4 4 5 11 13 8 12 6 6 7 7 12 9 9 7 4 2 5
12 6 10 7 22 16 13 14 15 14 8 7 13 8 8 7 10 8 9 4 5 1 3 1 2 3 4 7 8 12 17 15 16 11 6 4 6 5 16 17 13 9 7 4 4
33 13 21 12 12 12 18 26 16 6 10 25 9 5 9 9 8 12 10 15 11 8 5 5 4 3 4 4 7 8 10 11 4 7 7 9 6 14 11 14 14 12 9 6 3

GFSSW_850_spd_129.txt.gz
Wind_Speed
10 9 9 9 9 9 11 12 13 14 16 17 17 16 18 18 14 8 10 13 16 13 8 6 7 5 4 1 1 1 4 1 3 2 3 2 3 4 2 6 6 6 9 6 4
12 12 11 11 12 12 12 13 14 15 16 16 18 17 17 18 15 3 8 12 12 10 6 6 6 8 3 2 1 3 3 8 5 3 5 2 3 6 1 3 0 9 7 9 4
15 15 15 14 15 14 14 15 15 16 17 17 18 18 18 18 12 1 10 10 10 10 6 6 7 5 2 2 1 1 4 4 6 13 12 7 4 2 4 0 5 10 16 14 8
19 19 18 18 17 16 16 16 16 16 17 18 18 18 17 15 3 4 9 12 11 5 2 3 6 4 3 3 3 4 6 7 7 7 5 5 9 4 6 4 7 10 13 13 13
23 22 21 21 19 18 16 17 15 16 16 18 17 19 17 11 9 9 9 10 7 2 4 4 8 8 4 6 9 3 4 16 16 21 16 12 8 7 14 17 12 11 14 12 4
27 26 24 23 20 19 15 16 14 15 15 17 17 18 17 8 7 9 11 8 6 3 1 4 6 8 4 3 1 8 10 18 16 20 17 6 5 2 23 17 14 13 10 7 9
23 28 28 26 20 16 13 12 14 17 14 14 18 20 20 20 12 10 10 5 8 7 4 3 4 4 8 5 7 7 7 9 9 8 4 4 4 4 15 14 9 5 17 20 19
25 28 21 20 16 12 12 15 17 19 16 15 17 19 14 13 15 18 14 3 7 7 9 5 5 6 3 6 9 5 3 3 5 7 3 3 5 5 15 9 6 21 21 21 20
26 29 25 19 20 15 17 17 22 18 16 15 15 13 13 11 13 7 9 3 5 4 2 2 3 2 1 4 5 4 3 3 8 6 4 4 3 9 14 13 15 20 18 17 16
25 27 27 29 22 19 21 17 19 20 15 12 15 9 14 10 6 6 7 5 4 3 3 4 2 1 3 4 4 3 2 3 4 7 5 1 3 7 15 19 21 22 18 15 12
22 24 27 25 26 24 24 17 10 7 15 11 4 7 2 4 11 10 10 7 7 2 3 2 3 8 9 7 4 3 4 6 7 12 5 3 4 1 12 22 18 18 16 14 13
18 19 21 20 20 21 17 18 7 5 9 15 22 33 30 19 9 17 12 7 8 6 3 2 7 11 6 5 6 6 6 9 7 9 4 3 3 6 7 9 14 14 13 13 14
16 15 15 19 18 18 22 18 9 5 5 13 25 27 34 31 26 31 18 14 6 7 7 7 7 4 6 5 6 6 5 5 8 3 4 3 3 4 5 12 12 13 12 14 19
14 13 17 15 15 19 20 16 8 1 3 6 5 10 18 13 8 24 31 18 6 10 6 6 12 11 7 8 6 6 5 4 1 3 3 2 5 6 5 6 7 8 12 15 18
14 16 18 19 10 22 17 18 11 5 3 3 5 4 13 17 2 2 16 24 8 5 6 8 4 3 3 6 7 7 5 4 4 2 1 1 2 0 5 1 2 4 6 12 17
16 17 19 19 15 9 20 19 12 4 9 3 6 6 7 9 1 5 5 7 8 5 4 7 3 4 7 5 5 3 2 4 4 2 5 4 7 3 4 4 2 2 6 12 18
18 20 22 23 22 15 23 22 4 6 4 4 5 5 5 5 4 3 5 5 5 4 5 2 5 5 7 5 3 4 5 3 4 2 5 3 1 7 6 4 4 5 1 9 17
19 18 22 25 24 23 28 4 6 5 7 4 3 3 6 5 4 4 5 5 4 3 2 4 5 3 3 5 5 5 8 5 5 4 5 3 5 4 5 10 8 6 2 8 16
20 23 24 24 24 27 22 8 7 6 5 4 2 3 3 4 5 4 7 5 7 8 7 4 4 2 2 2 5 3 2 2 1 1 1 4 3 3 6 5 6 6 1 8 14
20 22 23 28 23 32 8 11 6 5 4 3 7 6 7 6 7 7 8 5 5 9 6 4 1 2 1 3 4 4 5 3 2 3 9 6 6 5 9 10 6 3 1 6 12
21 10 16 29 25 18 7 10 5 10 3 2 2 1 2 4 7 6 8 3 6 3 8 5 4 2 1 3 6 1 1 2 2 3 5 13 7 6 9 8 7 5 2 7 12
15 4 13 33 9 4 7 6 8 5 11 6 2 4 3 1 2 6 9 7 7 10 8 3 4 3 7 1 2 2 5 5 3 5 5 4 16 3 4 8 10 6 2 5 9
11 9 22 32 8 6 3 7 4 2 7 5 7 7 4 3 1 1 3 5 2 4 9 7 2 1 5 5 2 3 3 3 2 2 11 6 9 2 6 8 10 9 4 2 5
10 4 9 11 22 15 11 10 12 8 4 3 2 3 3 3 3 3 2 6 5 3 5 6 3 6 8 4 3 3 5 6 6 3 5 9 11 7 9 9 11 9 4 1 3
12 7 11 7 15 12 9 6 17 9 10 12 4 6 4 4 3 4 2 2 4 3 4 4 5 3 2 4 3 4 5 12 9 11 8 15 11 5 15 15 18 13 7 4 1
10 6 7 3 15 20 10 14 12 14 8 13 4 6 7 8 9 7 6 2 3 3 3 3 2 3 4 6 7 10 14 15 14 15 12 8 23 6 8 21 17 13 11 7 3
26 18 7 13 7 13 21 20 16 3 9 18 7 6 8 12 16 17 18 14 8 10 5 4 5 3 5 2 5 6 11 11 5 6 7 10 10 8 5 13 16 16 13 10 5

GFSSW_850_spd_132.txt.gz
Wind_Speed
10 9 8 7 8 10 11 13 14 15 16 17 17 19 19 17 13 7 8 11 13 12 9 7 6 5 4 3 3 3 4 1 2 5 3 3 7 6 5 4 3 4 3 1 4
13 11 11 10 10 11 12 14 15 15 16 17 17 17 19 18 16 4 6 9 11 10 7 7 5 6 4 3 3 5 3 5 3 1 3 6 3 7 3 3 1 2 5 6 2
16 15 14 14 13 13 14 15 17 17 17 17 17 16 17 17 13 2 8 10 12 9 5 4 6 5 3 3 3 2 3 2 4 5 11 2 4 3 3 1 6 7 8 4 9
20 19 19 18 16 16 16 16 18 19 18 19 17 18 17 13 4 3 8 10 9 5 3 2 3 3 3 3 3 2 3 2 5 8 11 3 7 5 7 12 7 10 6 2 4
23 23 23 21 20 18 17 17 18 19 18 19 19 18 16 9 9 8 6 8 6 3 4 3 7 3 2 2 5 2 3 11 14 16 13 14 11 7 15 19 16 5 2 13 17
24 25 23 25 24 20 19 19 19 17 17 16 17 16 14 7 8 8 7 6 4 3 1 3 5 3 1 2 1 4 6 15 10 15 8 4 5 3 9 12 7 8 17 18 17
26 24 18 22 24 23 20 19 17 16 18 17 17 18 18 21 15 14 9 6 6 5 1 2 1 2 4 3 4 4 5 7 4 1 1 3 3 2 18 11 19 20 19 18 16
24 23 20 19 21 23 19 13 14 17 18 18 17 16 13 15 16 12 13 10 5 6 4 2 2 3 1 3 5 3 4 3 4 6 4 2 4 4 15 16 20 18 16 15 13
32 31 24 22 18 17 14 16 16 18 17 17 17 11 14 12 15 12 13 12 3 1 2 2 1 1 1 4 5 5 2 2 6 6 3 7 5 6 12 16 18 15 12 11 9
35 30 27 24 21 20 18 18 19 15 18 17 21 9 15 10 2 3 10 10 4 3 2 4 0 3 3 4 4 2 1 0 2 4 7 4 8 6 13 16 16 13 10 9 9
21 24 24 24 27 26 13 12 13 9 14 11 5 7 4 4 6 5 8 9 6 2 3 3 3 7 8 5 2 2 1 3 5 9 1 7 6 3 7 13 13 11 10 9 11
20 20 21 23 23 22 19 11 9 4 9 14 21 29 29 23 9 9 10 7 6 5 4 5 6 9 5 3 4 3 2 6 6 6 6 7 4 2 3 4 5 7 8 10 12
15 17 15 15 14 16 19 18 13 8 7 15 25 26 32 27 25 34 13 10 5 5 6 7 5 6 5 4 4 3 4 4 7 3 3 2 4 5 2 7 5 6 7 10 15
14 13 13 14 15 19 21 16 13 5 3 6 5 8 15 13 8 28 27 19 4 10 8 6 9 6 3 5 6 3 6 7 5 1 3 1 6 5 5 3 1 1 5 10 14
11 14 16 18 8 21 12 17 10 5 3 3 4 4 7 14 3 3 14 25 9 6 6 6 3 3 3 5 7 7 2 1 1 1 2 2 1 2 5 5 5 3 3 7 13
12 14 19 22 16 8 19 23 12 4 8 3 6 4 5 8 1 7 6 8 10 4 2 5 2 4 6 4 3 4 3 5 4 2 4 6 7 3 5 5 3 5 3 6 13
15 16 21 22 21 12 22 24 4 5 3 2 4 5 3 5 2 3 6 6 6 5 4 1 6 3 4 3 1 4 5 3 3 1 5 3 2 8 5 3 5 8 4 5 12
19 18 21 23 22 17 27 3 5 5 6 3 3 3 5 4 4 2 5 4 1 5 3 4 3 5 3 6 6 5 7 5 5 3 5 2 6 5 4 6 6 5 3 6 11
20 21 24 28 27 23 23 8 7 6 5 4 4 3 4 3 4 3 5 6 8 8 7 5 4 1 3 4 5 4 3 4 2 1 1 4 6 2 4 5 9 9 6 5 8
21 21 25 30 27 31 10 10 5 3 2 1 7 5 7 5 5 5 5 4 5 10 6 5 1 1 1 4 4 4 5 3 2 2 5 6 6 9 7 11 8 10 9 4 6
20 9 20 27 25 16 9 11 5 8 2 2 1 2 3 5 6 5 6 3 4 4 5 5 4 2 1 4 7 2 1 3 3 3 3 7 8 6 6 7 13 11 9 4 4
16 4 17 34 9 3 6 6 3 2 10 3 1 1 3 3 4 6 8 4 6 7 8 5 4 4 6 0 1 1 5 5 4 5 4 1 12 2 1 4 12 12 10 5 2
9 11 23 33 9 12 5 9 4 2 4 5 4 4 2 3 0 3 3 3 5 2 7 7 2 1 5 4 2 3 4 3 4 3 13 3 10 2 4 6 10 14 10 5 2
7 4 7 21 19 6 13 13 12 11 4 4 2 3 2 2 3 3 3 4 3 3 6 5 3 6 8 5 4 3 4 5 5 3 12 15 23 9 7 9 12 15 12 7 3
13 5 9 6 15 14 7 5 14 9 9 12 2 4 5 5 3 4 2 2 3 3 4 3 1 1 2 1 1 4 5 7 9 17 9 20 12 15 9 12 23 21 14 10 6
12 4 4 5 15 16 10 15 9 13 7 5 3 8 6 6 6 5 4 3 4 2 3 2 3 3 5 4 5 7 3 10 16 14 15 13 23 12 10 10 19 24 18 13 9
25 22 4 9 7 12 20 17 14 7 3 7 5 3 5 6 8 12 13 7 7 8 4 4 4 2 5 3 5 8 8 12 4 6 6 8 10 4 3 7 17 22 17 14 11